M I D A S
Marine Information and Data Acquisition System
Tripno 822 of the Zeeleeuw from 2004-12-17 08:20:03 to 2004-12-17 16:27:23
Back to CruiseResearch ActivitiesStationsMapUnderway DataData graphs

EquipmentUnitsComment
TimeDGPSUTC
LatitudeDGPSDM.mWGS84
LongitudeDGPSDM.mWGS84
TemperatureSBE03/SBE38deg celciusITS90
ConductivitySBE21S/mITS90
SalinitySBE21 Practical Salinity Units
ChlorophylAChelsea fluorimeterg/lCalibrated in Aceton
Missing or incorrect values are displayed as -999
Sea surface data collected by the RV Zeeleeuw from 2004-12-17 06:34:48 to 2004-12-17 17:09:45
                                                                                    Next 1000 lines
Time Latitude Longitude Temperature Conductivity Salinity ChlorophylA
2004-12-17 06:34:58 51°13.602 2°56.105 12.916734 0.068565 0.35523 -0.882377
2004-12-17 06:35:03 51°13.6 2°56.104 12.918432 0.068565 0.355236 -0.882377
2004-12-17 06:35:08 51°13.6 2°56.103 12.918238 0.068565 0.35523 -0.882377
2004-12-17 06:35:13 51°13.6 2°56.103 12.918238 0.068565 0.35523 -0.882377
2004-12-17 06:35:18 51°13.6 2°56.103 12.91819 0.068565 0.355236 -0.882377
2004-12-17 06:35:23 51°13.6 2°56.104 12.919354 0.068565 0.35523 -0.882377
2004-12-17 06:35:28 51°13.6 2°56.104 12.918772 0.068565 0.355225 -0.882377
2004-12-17 06:35:33 51°13.6 2°56.104 12.91688 0.068565 0.355225 -0.882377
2004-12-17 06:35:38 51°13.6 2°56.104 12.915133 0.068565 0.355225 -0.848668
2004-12-17 06:35:43 51°13.6 2°56.104 12.915133 0.068565 0.355225 -0.848668
2004-12-17 06:35:48 51°13.599 2°56.104 12.914308 0.068565 0.355225 -0.882377
2004-12-17 06:35:53 51°13.599 2°56.104 12.913969 0.068565 0.35522 -0.882377
2004-12-17 06:35:58 51°13.598 2°56.104 12.917365 0.068565 0.35522 -0.882377
2004-12-17 06:36:03 51°13.598 2°56.103 12.918141 0.068565 0.355225 -0.848668
2004-12-17 06:36:08 51°13.597 2°56.103 12.915036 0.068565 0.35522 -0.848668
2004-12-17 06:36:13 51°13.597 2°56.103 12.915036 0.068565 0.35522 -0.848668
2004-12-17 06:36:18 51°13.597 2°56.103 12.920664 0.068565 0.355225 -0.848668
2004-12-17 06:36:23 51°13.597 2°56.103 12.918481 0.068565 0.355215 -0.848668
2004-12-17 06:36:28 51°13.596 2°56.103 12.919742 0.068565 0.35522 -0.848668
2004-12-17 06:36:33 51°13.596 2°56.103 12.919403 0.068565 0.355215 -0.848668
2004-12-17 06:36:38 51°13.596 2°56.103 12.916734 0.068565 0.355215 -0.916087
2004-12-17 06:36:43 51°13.596 2°56.102 12.916734 0.068565 0.355215 -0.916087
2004-12-17 06:36:48 51°13.596 2°56.102 12.920761 0.068565 0.35522 -0.882377
2004-12-17 06:36:53 51°13.596 2°56.102 12.9195 0.068565 0.355215 -0.882377
2004-12-17 06:36:58 51°13.596 2°56.102 12.917947 0.068565 0.355209 -0.882377
2004-12-17 06:37:03 51°13.596 2°56.102 12.919354 0.068565 0.355209 -0.882377
2004-12-17 06:37:08 51°13.595 2°56.102 12.917947 0.068565 0.355209 -0.882377
2004-12-17 06:37:13 51°13.595 2°56.102 12.917947 0.068565 0.355209 -0.882377
2004-12-17 06:37:18 51°13.595 2°56.101 12.916977 0.068565 0.355209 -0.848668
2004-12-17 06:37:23 51°13.596 2°56.101 12.916152 0.068565 0.355204 -0.882377
2004-12-17 06:37:28 51°13.596 2°56.101 12.919839 0.068565 0.355204 -0.848668
2004-12-17 06:37:33 51°13.596 2°56.101 12.91688 0.068565 0.355209 -0.882377
2004-12-17 06:37:38 51°13.596 2°56.101 12.915182 0.068565 0.355204 -0.882377
2004-12-17 06:37:43 51°13.596 2°56.101 12.915182 0.068565 0.355204 -0.882377
2004-12-17 06:37:48 51°13.596 2°56.101 12.916589 0.068565 0.355199 -0.882377
2004-12-17 06:37:53 51°13.596 2°56.101 12.915424 0.068565 0.355199 -0.882377
2004-12-17 06:37:58 51°13.596 2°56.101 12.914745 0.068565 0.355199 -0.848668
2004-12-17 06:38:03 51°13.595 2°56.101 12.91557 0.068565 0.355193 -0.848668
2004-12-17 06:38:08 51°13.595 2°56.101 12.913629 0.068565 0.355193 -0.882377
2004-12-17 06:38:13 51°13.595 2°56.101 12.913629 0.068565 0.355193 -0.882377
2004-12-17 06:38:18 51°13.595 2°56.102 12.915036 0.068565 0.355193 -0.848668
2004-12-17 06:38:23 51°13.594 2°56.102 12.91688 0.068565 0.355188 -0.882377
2004-12-17 06:38:28 51°13.594 2°56.101 12.915812 0.068565 0.355193 -0.814958
2004-12-17 06:38:33 51°13.594 2°56.101 12.913289 0.068565 0.355193 -0.848668
2004-12-17 06:38:38 51°13.594 2°56.101 12.913289 0.068565 0.355193 -0.882377
2004-12-17 06:38:43 51°13.595 2°56.101 12.913289 0.068565 0.355193 -0.882377
2004-12-17 06:38:48 51°13.595 2°56.101 12.913338 0.068565 0.355188 -0.882377
2004-12-17 06:38:53 51°13.595 2°56.101 12.914745 0.068565 0.355188 -0.882377
2004-12-17 06:38:58 51°13.595 2°56.101 12.915473 0.068565 0.355183 -0.882377
2004-12-17 06:39:04 51°13.595 2°56.101 12.917219 0.068565 0.355188 -0.882377
2004-12-17 06:39:09 51°13.595 2°56.101 12.915909 0.068565 0.355183 -0.848668
2004-12-17 06:39:14 51°13.595 2°56.101 12.915909 0.068565 0.355183 -0.848668
2004-12-17 06:39:19 51°13.595 2°56.101 12.914308 0.068565 0.355183 -0.882377
2004-12-17 06:39:24 51°13.595 2°56.101 12.916152 0.068565 0.355183 -0.848668
2004-12-17 06:39:29 51°13.595 2°56.101 12.917705 0.068565 0.355177 -0.882377
2004-12-17 06:39:33 51°13.595 2°56.101 12.920761 0.068565 0.355183 -0.882377
2004-12-17 06:39:39 51°13.595 2°56.101 12.915376 0.068565 0.355177 -0.848668
2004-12-17 06:39:44 51°13.595 2°56.101 12.915376 0.068565 0.355177 -0.848668
2004-12-17 06:39:49 51°13.595 2°56.101 12.916589 0.068565 0.355177 -0.882377
2004-12-17 06:39:53 51°13.595 2°56.101 12.915133 0.068565 0.355177 -0.882377
2004-12-17 06:39:59 51°13.595 2°56.101 12.912513 0.068565 0.355177 -0.882377
2004-12-17 06:40:04 51°13.595 2°56.101 12.913775 0.068565 0.355172 -0.848668
2004-12-17 06:40:09 51°13.595 2°56.101 12.916734 0.068565 0.355172 -0.882377
2004-12-17 06:40:13 51°13.595 2°56.101 12.916734 0.068565 0.355172 -0.882377
2004-12-17 06:40:19 51°13.595 2°56.101 12.914211 0.068565 0.355172 -0.882377
2004-12-17 06:40:24 51°13.595 2°56.101 12.91654 0.068565 0.355172 -0.848668
2004-12-17 06:40:29 51°13.595 2°56.101 12.918287 0.068565 0.355167 -0.882377
2004-12-17 06:40:33 51°13.595 2°56.101 12.919063 0.068565 0.355167 -0.848668
2004-12-17 06:40:39 51°13.595 2°56.101 12.916831 0.068565 0.355172 -0.848668
2004-12-17 06:40:44 51°13.595 2°56.101 12.916831 0.068565 0.355172 -0.848668
2004-12-17 06:40:49 51°13.595 2°56.101 12.919257 0.068565 0.355167 -0.882377
2004-12-17 06:40:53 51°13.595 2°56.101 12.920421 0.068565 0.355167 -0.882377
2004-12-17 06:40:59 51°13.595 2°56.101 12.923138 0.068565 0.355161 -0.848668
2004-12-17 06:41:04 51°13.595 2°56.101 12.91688 0.068565 0.355161 -0.882377
2004-12-17 06:41:09 51°13.595 2°56.101 12.921343 0.068565 0.355161 -0.848668
2004-12-17 06:41:13 51°13.595 2°56.101 12.921343 0.068565 0.355161 -0.848668
2004-12-17 06:41:19 51°13.595 2°56.101 12.923332 0.068565 0.355151 -0.882377
2004-12-17 06:41:24 51°13.595 2°56.101 12.930609 0.068565 0.355156 -0.882377
2004-12-17 06:41:29 51°13.595 2°56.101 12.928135 0.068565 0.355156 -0.882377
2004-12-17 06:41:33 51°13.595 2°56.101 12.917219 0.068565 0.355161 -0.848668
2004-12-17 06:41:39 51°13.595 2°56.101 12.917219 0.068565 0.355156 -0.882377
2004-12-17 06:41:44 51°13.595 2°56.101 12.917219 0.068565 0.355156 -0.882377
2004-12-17 06:41:49 51°13.595 2°56.101 12.915861 0.068565 0.355151 -0.882377
2004-12-17 06:41:53 51°13.596 2°56.101 12.918141 0.068565 0.355151 -0.848668
2004-12-17 06:41:59 51°13.596 2°56.101 12.919694 0.068565 0.355151 -0.882377
2004-12-17 06:42:04 51°13.596 2°56.1 12.91688 0.068565 0.355151 -0.882377
2004-12-17 06:42:09 51°13.596 2°56.1 12.917268 0.068565 0.355151 -0.882377
2004-12-17 06:42:13 51°13.596 2°56.1 12.917268 0.068565 0.355151 -0.882377
2004-12-17 06:42:19 51°13.596 2°56.1 12.920664 0.068565 0.355145 -0.882377
2004-12-17 06:42:24 51°13.596 2°56.1 12.919839 0.068565 0.355145 -0.882377
2004-12-17 06:42:29 51°13.596 2°56.1 12.919354 0.068565 0.355145 -0.848668
2004-12-17 06:42:33 51°13.596 2°56.1 12.920907 0.068565 0.355145 -0.882377
2004-12-17 06:42:39 51°13.596 2°56.101 12.922702 0.068565 0.355145 -0.882377
2004-12-17 06:42:44 51°13.596 2°56.101 12.922702 0.068565 0.355145 -0.882377
2004-12-17 06:42:49 51°13.596 2°56.101 12.923623 0.068565 0.355145 -0.882377
2004-12-17 06:42:53 51°13.596 2°56.101 12.920907 0.068565 0.355145 -0.848668
2004-12-17 06:42:59 51°13.596 2°56.101 12.920324 0.068565 0.35514 -0.848668
2004-12-17 06:43:04 51°13.596 2°56.101 12.922216 0.068565 0.355135 -0.882377
2004-12-17 06:43:09 51°13.596 2°56.101 12.919063 0.068565 0.355135 -0.882377
2004-12-17 06:43:13 51°13.596 2°56.101 12.919063 0.068565 0.355135 -0.882377
2004-12-17 06:43:19 51°13.596 2°56.101 12.919548 0.068565 0.355135 -0.848668
2004-12-17 06:43:24 51°13.596 2°56.101 12.917608 0.068565 0.35513 -0.882377
2004-12-17 06:43:29 51°13.596 2°56.101 12.920955 0.068565 0.355135 -0.882377
2004-12-17 06:43:33 51°13.596 2°56.101 12.918238 0.068565 0.35513 -0.882377
2004-12-17 06:43:39 51°13.596 2°56.101 12.914405 0.068565 0.35513 -0.882377
2004-12-17 06:43:44 51°13.596 2°56.101 12.914405 0.068565 0.35513 -0.882377
2004-12-17 06:43:49 51°13.596 2°56.101 12.916831 0.068565 0.355124 -0.848668
2004-12-17 06:43:53 51°13.596 2°56.101 12.916443 0.068565 0.35513 -0.848668
2004-12-17 06:43:59 51°13.596 2°56.101 12.919063 0.068565 0.35513 -0.882377
2004-12-17 06:44:04 51°13.596 2°56.101 12.914648 0.068565 0.35513 -0.882377
2004-12-17 06:44:09 51°13.596 2°56.101 12.916686 0.068565 0.355124 -0.848668
2004-12-17 06:44:13 51°13.596 2°56.101 12.916686 0.068565 0.355124 -0.848668
2004-12-17 06:44:19 51°13.596 2°56.101 12.917171 0.068565 0.355124 -0.882377
2004-12-17 06:44:24 51°13.596 2°56.101 12.919257 0.068565 0.355119 -0.848668
2004-12-17 06:44:29 51°13.596 2°56.102 12.917219 0.068565 0.355124 -0.882377
2004-12-17 06:44:33 51°13.596 2°56.102 12.919354 0.068565 0.355119 -0.882377
2004-12-17 06:44:39 51°13.596 2°56.102 12.915812 0.068565 0.355119 -0.848668
2004-12-17 06:44:44 51°13.596 2°56.102 12.915812 0.068565 0.355119 -0.848668
2004-12-17 06:44:49 51°13.596 2°56.102 12.915182 0.068565 0.355119 -0.848668
2004-12-17 06:44:53 51°13.596 2°56.102 12.916103 0.068565 0.355119 -0.882377
2004-12-17 06:44:59 51°13.596 2°56.102 12.916103 0.068565 0.355114 -0.848668
2004-12-17 06:45:04 51°13.595 2°56.102 12.915036 0.068565 0.355114 -0.848668
2004-12-17 06:45:09 51°13.595 2°56.102 12.915327 0.068565 0.355114 -0.882377
2004-12-17 06:45:13 51°13.595 2°56.102 12.915327 0.068565 0.355114 -0.882377
2004-12-17 06:45:19 51°13.595 2°56.102 12.910815 0.068565 0.355114 -0.882377
2004-12-17 06:45:24 51°13.595 2°56.102 12.910087 0.068565 0.355114 -0.882377
2004-12-17 06:45:29 51°13.595 2°56.102 12.912028 0.068565 0.355108 -0.882377
2004-12-17 06:45:33 51°13.595 2°56.102 12.911785 0.068565 0.355108 -0.882377
2004-12-17 06:45:39 51°13.595 2°56.102 12.910863 0.068565 0.355103 -0.882377
2004-12-17 06:45:44 51°13.594 2°56.102 12.910863 0.068565 0.355103 -0.882377
2004-12-17 06:45:49 51°13.594 2°56.102 12.911882 0.068565 0.355108 -0.848668
2004-12-17 06:45:53 51°13.594 2°56.102 12.911979 0.068565 0.355103 -0.882377
2004-12-17 06:45:59 51°13.594 2°56.102 12.913386 0.068565 0.355103 -0.882377
2004-12-17 06:46:04 51°13.594 2°56.102 12.914454 0.068565 0.355103 -0.882377
2004-12-17 06:46:09 51°13.594 2°56.102 12.919548 0.068565 0.355103 -0.882377
2004-12-17 06:46:13 51°13.594 2°56.102 12.919548 0.068565 0.355103 -0.882377
2004-12-17 06:46:19 51°13.594 2°56.102 12.911785 0.068565 0.355098 -0.848668
2004-12-17 06:46:24 51°13.594 2°56.102 12.913775 0.068565 0.355103 -0.848668
2004-12-17 06:46:29 51°13.594 2°56.102 12.915327 0.068565 0.355098 -0.882377
2004-12-17 06:46:33 51°13.594 2°56.102 12.913678 0.068565 0.355092 -0.916087
2004-12-17 06:46:39 51°13.594 2°56.102 12.915618 0.068565 0.355098 -0.882377
2004-12-17 06:46:44 51°13.593 2°56.102 12.915618 0.068565 0.355098 -0.882377
2004-12-17 06:46:49 51°13.593 2°56.102 12.911591 0.068565 0.355087 -0.882377
2004-12-17 06:46:53 51°13.593 2°56.102 12.916395 0.068565 0.355092 -0.882377
2004-12-17 06:46:59 51°13.593 2°56.102 12.918238 0.068565 0.355092 -0.848668
2004-12-17 06:47:04 51°13.593 2°56.102 12.91295 0.068565 0.355087 -0.848668
2004-12-17 06:47:09 51°13.594 2°56.102 12.913823 0.068565 0.355087 -0.882377
2004-12-17 06:47:13 51°13.594 2°56.102 12.913823 0.068565 0.355087 -0.882377
2004-12-17 06:47:19 51°13.594 2°56.102 12.914696 0.068565 0.355082 -0.848668
2004-12-17 06:47:24 51°13.594 2°56.102 12.914745 0.068565 0.355082 -0.848668
2004-12-17 06:47:29 51°13.594 2°56.102 12.914891 0.068565 0.355087 -0.882377
2004-12-17 06:47:33 51°13.594 2°56.102 12.913192 0.068565 0.355076 -0.916087
2004-12-17 06:47:39 51°13.594 2°56.102 12.916298 0.068565 0.355076 -0.848668
2004-12-17 06:47:44 51°13.594 2°56.102 12.916298 0.068565 0.355076 -0.848668
2004-12-17 06:47:49 51°13.594 2°56.102 12.915521 0.068565 0.355082 -0.916087
2004-12-17 06:47:53 51°13.594 2°56.102 12.916443 0.068565 0.355082 -0.848668
2004-12-17 06:47:59 51°13.594 2°56.102 12.91392 0.068565 0.355071 -0.882377
2004-12-17 06:48:04 51°13.594 2°56.102 12.915182 0.068565 0.355082 -0.882377
2004-12-17 06:48:09 51°13.594 2°56.102 12.906448 0.068565 0.355071 -0.882377
2004-12-17 06:48:13 51°13.594 2°56.102 12.906448 0.068565 0.355071 -0.882377
2004-12-17 06:48:19 51°13.594 2°56.102 12.907321 0.068565 0.355071 -0.848668
2004-12-17 06:48:24 51°13.594 2°56.102 12.905866 0.068565 0.355076 -0.882377
2004-12-17 06:48:29 51°13.594 2°56.102 12.905429 0.068565 0.355076 -0.882377
2004-12-17 06:48:33 51°13.594 2°56.102 12.911058 0.068565 0.355071 -0.848668
2004-12-17 06:48:39 51°13.594 2°56.102 12.91261 0.068565 0.355071 -0.882377
2004-12-17 06:48:44 51°13.594 2°56.102 12.91261 0.068565 0.355071 -0.882377
2004-12-17 06:48:49 51°13.594 2°56.102 12.913095 0.068565 0.355066 -0.848668
2004-12-17 06:48:53 51°13.594 2°56.102 12.914794 0.068565 0.355071 -0.882377
2004-12-17 06:48:59 51°13.594 2°56.102 12.912222 0.068565 0.355071 -0.882377
2004-12-17 06:49:04 51°13.594 2°56.102 12.913289 0.068565 0.355071 -0.882377
2004-12-17 06:49:09 51°13.594 2°56.102 12.913192 0.068565 0.355066 -0.882377
2004-12-17 06:49:13 51°13.594 2°56.102 12.913192 0.068565 0.355066 -0.882377
2004-12-17 06:49:19 51°13.594 2°56.102 12.918093 0.068565 0.355066 -0.882377
2004-12-17 06:49:24 51°13.594 2°56.102 12.914211 0.068565 0.355066 -0.848668
2004-12-17 06:49:29 51°13.594 2°56.102 12.915327 0.068565 0.35506 -0.848668
2004-12-17 06:49:33 51°13.594 2°56.102 12.917559 0.068565 0.35506 -0.916087
2004-12-17 06:49:39 51°13.594 2°56.102 12.916443 0.068565 0.355055 -0.916087
2004-12-17 06:49:44 51°13.594 2°56.102 12.916443 0.068565 0.355055 -0.916087
2004-12-17 06:49:49 51°13.594 2°56.102 12.91392 0.068565 0.355055 -0.882377
2004-12-17 06:49:53 51°13.595 2°56.102 12.914745 0.068565 0.35506 -0.882377
2004-12-17 06:49:59 51°13.595 2°56.102 12.915812 0.068565 0.355055 -0.882377
2004-12-17 06:50:04 51°13.595 2°56.102 12.913726 0.068565 0.355055 -0.848668
2004-12-17 06:50:09 51°13.595 2°56.102 12.912901 0.068565 0.355055 -0.882377
2004-12-17 06:50:13 51°13.595 2°56.102 12.912901 0.068565 0.355055 -0.882377
2004-12-17 06:50:19 51°13.595 2°56.102 12.915036 0.068565 0.355055 -0.882377
2004-12-17 06:50:24 51°13.595 2°56.102 12.914988 0.068565 0.355055 -0.882377
2004-12-17 06:50:29 51°13.595 2°56.102 12.914599 0.068565 0.35505 -0.848668
2004-12-17 06:50:33 51°13.595 2°56.102 12.917025 0.068565 0.35505 -0.882377
2004-12-17 06:50:39 51°13.595 2°56.102 12.915182 0.068565 0.35505 -0.882377
2004-12-17 06:50:44 51°13.595 2°56.102 12.915182 0.068565 0.35505 -0.882377
2004-12-17 06:50:49 51°13.596 2°56.102 12.923332 0.068565 0.35505 -0.848668
2004-12-17 06:50:53 51°13.596 2°56.102 12.918481 0.068565 0.355045 -0.882377
2004-12-17 06:50:59 51°13.596 2°56.102 12.914988 0.068565 0.355045 -0.882377
2004-12-17 06:51:04 51°13.596 2°56.102 12.915327 0.068565 0.355039 -0.882377
2004-12-17 06:51:09 51°13.596 2°56.102 12.919403 0.068565 0.355045 -0.882377
2004-12-17 06:51:13 51°13.596 2°56.102 12.919403 0.068565 0.355045 -0.882377
2004-12-17 06:51:19 51°13.596 2°56.102 12.928232 0.068565 0.355039 -0.882377
2004-12-17 06:51:24 51°13.596 2°56.102 12.930706 0.068565 0.355045 -0.848668
2004-12-17 06:51:29 51°13.596 2°56.102 12.915909 0.068565 0.355039 -0.882377
2004-12-17 06:51:33 51°13.596 2°56.102 12.911979 0.068565 0.355039 -0.916087
2004-12-17 06:51:39 51°13.596 2°56.102 12.913726 0.068565 0.355039 -0.848668
2004-12-17 06:51:44 51°13.596 2°56.102 12.913726 0.068565 0.355039 -0.848668
2004-12-17 06:51:49 51°13.596 2°56.102 12.918578 0.068565 0.355034 -0.882377
2004-12-17 06:51:53 51°13.596 2°56.102 12.918869 0.068565 0.355039 -0.882377
2004-12-17 06:51:59 51°13.596 2°56.102 12.914357 0.068565 0.355034 -0.882377
2004-12-17 06:52:04 51°13.596 2°56.102 12.91392 0.068565 0.355034 -0.882377
2004-12-17 06:52:09 51°13.596 2°56.102 12.915473 0.068565 0.355034 -0.882377
2004-12-17 06:52:13 51°13.596 2°56.102 12.915473 0.068565 0.355034 -0.882377
2004-12-17 06:52:19 51°13.596 2°56.102 12.917996 0.068565 0.355034 -0.882377
2004-12-17 06:52:24 51°13.596 2°56.102 12.913386 0.068565 0.355029 -0.882377
2004-12-17 06:52:29 51°13.596 2°56.102 12.918626 0.068565 0.355034 -0.882377
2004-12-17 06:52:33 51°13.596 2°56.102 12.917996 0.068565 0.355029 -0.848668
2004-12-17 06:52:39 51°13.596 2°56.102 12.918287 0.068565 0.355029 -0.848668
2004-12-17 06:52:44 51°13.596 2°56.102 12.918287 0.068565 0.355029 -0.848668
2004-12-17 06:52:49 51°13.596 2°56.102 12.915958 0.068565 0.355029 -0.882377
2004-12-17 06:52:53 51°13.595 2°56.102 12.914891 0.068565 0.355023 -0.882377
2004-12-17 06:52:59 51°13.595 2°56.102 12.913289 0.068565 0.355018 -0.882377
2004-12-17 06:53:04 51°13.595 2°56.102 12.914648 0.068565 0.355018 -0.882377
2004-12-17 06:53:09 51°13.595 2°56.102 12.913581 0.068565 0.355018 -0.848668
2004-12-17 06:53:13 51°13.595 2°56.103 12.913581 0.068565 0.355018 -0.848668
2004-12-17 06:53:19 51°13.594 2°56.103 12.914211 0.068565 0.355023 -0.848668
2004-12-17 06:53:24 51°13.594 2°56.103 12.918384 0.068565 0.355018 -0.882377
2004-12-17 06:53:29 51°13.594 2°56.103 12.918675 0.068565 0.355018 -0.916087
2004-12-17 06:53:33 51°13.594 2°56.103 12.91654 0.068565 0.355018 -0.882377
2004-12-17 06:53:39 51°13.594 2°56.103 12.916831 0.068565 0.355018 -0.848668
2004-12-17 06:53:44 51°13.594 2°56.102 12.916831 0.068565 0.355018 -0.848668
2004-12-17 06:53:49 51°13.594 2°56.102 12.919111 0.068565 0.355013 -0.882377
2004-12-17 06:53:53 51°13.594 2°56.102 12.917268 0.068565 0.355013 -0.882377
2004-12-17 06:53:59 51°13.594 2°56.102 12.9195 0.068565 0.355018 -0.848668
2004-12-17 06:54:04 51°13.594 2°56.102 12.92144 0.068565 0.355007 -0.882377
2004-12-17 06:54:09 51°13.594 2°56.102 12.922362 0.068565 0.355007 -0.848668
2004-12-17 06:54:13 51°13.594 2°56.102 12.922362 0.068565 0.355007 -0.848668
2004-12-17 06:54:19 51°13.594 2°56.102 12.918432 0.068565 0.355013 -0.882377
2004-12-17 06:54:24 51°13.594 2°56.102 12.918869 0.068565 0.355007 -0.882377
2004-12-17 06:54:29 51°13.594 2°56.102 12.922847 0.068565 0.355007 -0.882377
2004-12-17 06:54:33 51°13.594 2°56.103 12.920421 0.068565 0.355002 -0.848668
2004-12-17 06:54:39 51°13.594 2°56.103 12.916977 0.068565 0.355007 -0.882377
2004-12-17 06:54:44 51°13.594 2°56.103 12.916977 0.068565 0.355007 -0.882377
2004-12-17 06:54:49 51°13.594 2°56.103 12.922022 0.068565 0.355002 -0.882377
2004-12-17 06:54:53 51°13.595 2°56.103 12.921101 0.068565 0.355002 -0.882377
2004-12-17 06:54:59 51°13.595 2°56.104 12.921149 0.068565 0.354997 -0.848668
2004-12-17 06:55:04 51°13.594 2°56.104 12.919209 0.068565 0.355002 -0.848668
2004-12-17 06:55:09 51°13.594 2°56.104 12.924254 0.068565 0.354997 -0.848668
2004-12-17 06:55:13 51°13.594 2°56.104 12.924254 0.068565 0.354997 -0.848668
2004-12-17 06:55:19 51°13.594 2°56.104 12.92406 0.068565 0.354997 -0.848668
2004-12-17 06:55:24 51°13.594 2°56.104 12.920809 0.068565 0.354997 -0.882377
2004-12-17 06:55:29 51°13.594 2°56.104 12.919257 0.068565 0.354997 -0.882377
2004-12-17 06:55:33 51°13.594 2°56.104 12.920179 0.068565 0.354991 -0.882377
2004-12-17 06:55:39 51°13.594 2°56.104 12.921052 0.068565 0.354997 -0.882377
2004-12-17 06:55:44 51°13.594 2°56.104 12.921052 0.068565 0.354997 -0.882377
2004-12-17 06:55:49 51°13.594 2°56.104 12.920955 0.068565 0.354997 -0.882377
2004-12-17 06:55:53 51°13.594 2°56.104 12.921101 0.068565 0.354991 -0.882377
2004-12-17 06:55:59 51°13.594 2°56.103 12.920082 0.068565 0.354991 -0.882377
2004-12-17 06:56:04 51°13.593 2°56.103 12.921877 0.068565 0.354986 -0.882377
2004-12-17 06:56:09 51°13.593 2°56.103 12.921004 0.068565 0.354986 -0.882377
2004-12-17 06:56:13 51°13.593 2°56.103 12.921004 0.068565 0.354986 -0.882377
2004-12-17 06:56:19 51°13.592 2°56.103 12.920809 0.068565 0.354991 -0.848668
2004-12-17 06:56:24 51°13.592 2°56.103 12.920227 0.068565 0.354986 -0.882377
2004-12-17 06:56:29 51°13.592 2°56.103 12.92144 0.068565 0.354986 -0.882377
2004-12-17 06:56:33 51°13.592 2°56.103 12.922168 0.068565 0.354986 -0.882377
2004-12-17 06:56:39 51°13.592 2°56.103 12.922119 0.068565 0.354981 -0.882377
2004-12-17 06:56:44 51°13.592 2°56.103 12.922119 0.068565 0.354981 -0.882377
2004-12-17 06:56:49 51°13.592 2°56.103 12.920615 0.068565 0.354981 -0.882377
2004-12-17 06:56:53 51°13.592 2°56.103 12.923575 0.068565 0.354981 -0.848668
2004-12-17 06:56:59 51°13.592 2°56.102 12.918917 0.068565 0.354981 -0.882377
2004-12-17 06:57:04 51°13.592 2°56.102 12.919354 0.068565 0.354981 -0.882377
2004-12-17 06:57:09 51°13.591 2°56.102 12.922604 0.068565 0.354981 -0.916087
2004-12-17 06:57:13 51°13.591 2°56.102 12.922604 0.068565 0.354981 -0.916087
2004-12-17 06:57:19 51°13.591 2°56.102 12.923526 0.068669 0.35553 -0.882377
2004-12-17 06:57:24 51°13.591 2°56.102 12.918966 0.068565 0.354981 -0.882377
2004-12-17 06:57:29 51°13.591 2°56.102 12.918675 0.068565 0.354976 -0.848668
2004-12-17 06:57:33 51°13.591 2°56.102 12.918675 0.068565 0.35497 -0.882377
2004-12-17 06:57:39 51°13.591 2°56.102 12.92241 0.068565 0.354976 -0.848668
2004-12-17 06:57:44 51°13.591 2°56.102 12.92241 0.068565 0.354976 -0.848668
2004-12-17 06:57:49 51°13.591 2°56.102 12.916055 0.068565 0.35497 -0.882377
2004-12-17 06:57:53 51°13.592 2°56.102 12.916006 0.068565 0.354965 -0.848668
2004-12-17 06:57:59 51°13.592 2°56.102 12.917559 0.068565 0.35497 -0.882377
2004-12-17 06:58:04 51°13.592 2°56.102 12.920033 0.068565 0.354965 -0.882377
2004-12-17 06:58:09 51°13.592 2°56.102 12.919111 0.068565 0.354965 -0.882377
2004-12-17 06:58:13 51°13.592 2°56.102 12.919111 0.068565 0.354965 -0.882377
2004-12-17 06:58:19 51°13.592 2°56.102 12.919694 0.068565 0.354965 -0.882377
2004-12-17 06:58:24 51°13.591 2°56.102 12.919403 0.068669 0.355514 -0.882377
2004-12-17 06:58:29 51°13.591 2°56.102 12.9195 0.068565 0.354965 -0.882377
2004-12-17 06:58:33 51°13.591 2°56.102 12.920082 0.068565 0.35496 -0.882377
2004-12-17 06:58:39 51°13.591 2°56.102 12.920082 0.068565 0.35496 -0.882377
2004-12-17 06:58:44 51°13.591 2°56.102 12.920082 0.068565 0.35496 -0.882377
2004-12-17 06:58:49 51°13.591 2°56.102 12.919791 0.068565 0.35496 -0.882377
2004-12-17 06:58:53 51°13.591 2°56.102 12.918772 0.068669 0.355509 -0.848668
2004-12-17 06:58:59 51°13.591 2°56.102 12.921392 0.068565 0.354954 -0.848668
2004-12-17 06:59:04 51°13.591 2°56.103 12.919694 0.068565 0.354954 -0.882377
2004-12-17 06:59:09 51°13.591 2°56.103 12.919839 0.068565 0.354949 -0.882377
2004-12-17 06:59:13 51°13.592 2°56.103 12.919839 0.068565 0.354949 -0.882377
2004-12-17 06:59:19 51°13.592 2°56.103 12.919403 0.068565 0.354954 -0.916087
2004-12-17 06:59:24 51°13.592 2°56.103 12.91916 0.068669 0.355503 -0.848668
2004-12-17 06:59:29 51°13.592 2°56.103 12.92144 0.068565 0.354949 -0.848668
2004-12-17 06:59:33 51°13.592 2°56.102 12.922362 0.068669 0.355503 -0.882377
2004-12-17 06:59:39 51°13.592 2°56.102 12.916928 0.068565 0.354949 -0.882377
2004-12-17 06:59:44 51°13.592 2°56.102 12.916928 0.068565 0.354949 -0.882377
2004-12-17 06:59:49 51°13.593 2°56.102 12.92144 0.068565 0.354944 -0.882377
2004-12-17 06:59:53 51°13.593 2°56.102 12.919548 0.068565 0.354944 -0.882377
2004-12-17 06:59:59 51°13.593 2°56.102 12.919548 0.068565 0.354944 -0.882377
2004-12-17 07:00:04 51°13.593 2°56.102 12.923284 0.068565 0.354944 -0.882377
2004-12-17 07:00:09 51°13.593 2°56.102 12.920518 0.068669 0.355498 -0.882377
2004-12-17 07:00:13 51°13.593 2°56.103 12.920518 0.068669 0.355498 -0.882377
2004-12-17 07:00:19 51°13.593 2°56.103 12.919742 0.068565 0.354938 -0.848668
2004-12-17 07:00:24 51°13.593 2°56.103 12.918238 0.068565 0.354938 -0.882377
2004-12-17 07:00:29 51°13.593 2°56.102 12.920567 0.068565 0.354938 -0.848668
2004-12-17 07:00:33 51°13.593 2°56.102 12.920712 0.068669 0.355493 -0.882377
2004-12-17 07:00:39 51°13.593 2°56.102 12.918626 0.068565 0.354938 -0.882377
2004-12-17 07:00:44 51°13.593 2°56.102 12.918626 0.068565 0.354938 -0.882377
2004-12-17 07:00:49 51°13.593 2°56.102 12.917122 0.068669 0.355487 -0.882377
2004-12-17 07:00:53 51°13.593 2°56.102 12.921586 0.068565 0.354938 -0.882377
2004-12-17 07:00:59 51°13.593 2°56.102 12.920809 0.068565 0.354933 -0.848668
2004-12-17 07:01:04 51°13.594 2°56.102 12.914405 0.068669 0.355482 -0.882377
2004-12-17 07:01:09 51°13.594 2°56.102 12.917074 0.068565 0.354928 -0.882377
2004-12-17 07:01:13 51°13.594 2°56.102 12.917074 0.068565 0.354928 -0.882377
2004-12-17 07:01:19 51°13.594 2°56.102 12.921295 0.068565 0.354928 -0.882377
2004-12-17 07:01:24 51°13.594 2°56.102 12.92144 0.068669 0.355482 -0.882377
2004-12-17 07:01:29 51°13.594 2°56.102 12.921101 0.068669 0.355482 -0.882377
2004-12-17 07:01:33 51°13.594 2°56.102 12.920858 0.068565 0.354922 -0.848668
2004-12-17 07:01:39 51°13.594 2°56.102 12.920033 0.068565 0.354922 -0.882377
2004-12-17 07:01:44 51°13.594 2°56.102 12.920033 0.068565 0.354922 -0.882377
2004-12-17 07:01:49 51°13.594 2°56.102 12.921343 0.068565 0.354922 -0.916087
2004-12-17 07:01:53 51°13.594 2°56.102 12.916589 0.068565 0.354922 -0.882377
2004-12-17 07:01:59 51°13.594 2°56.102 12.912416 0.068669 0.355477 -0.848668
2004-12-17 07:02:04 51°13.594 2°56.102 12.916249 0.068565 0.354922 -0.848668
2004-12-17 07:02:09 51°13.594 2°56.102 12.917802 0.068565 0.354917 -0.882377
2004-12-17 07:02:13 51°13.594 2°56.102 12.917802 0.068565 0.354917 -0.882377
2004-12-17 07:02:19 51°13.594 2°56.102 12.91785 0.068669 0.355471 -0.848668
2004-12-17 07:02:24 51°13.594 2°56.102 12.917268 0.068669 0.355471 -0.848668
2004-12-17 07:02:29 51°13.594 2°56.102 12.920761 0.068669 0.355471 -0.882377
2004-12-17 07:02:33 51°13.594 2°56.102 12.921198 0.068669 0.355471 -0.882377
2004-12-17 07:02:39 51°13.594 2°56.102 12.919985 0.068565 0.354912 -0.882377
2004-12-17 07:02:44 51°13.594 2°56.102 12.919985 0.068565 0.354912 -0.882377
2004-12-17 07:02:49 51°13.594 2°56.102 12.922847 0.068565 0.354912 -0.882377
2004-12-17 07:02:53 51°13.594 2°56.102 12.924642 0.068565 0.354912 -0.848668
2004-12-17 07:02:59 51°13.594 2°56.102 12.922993 0.068565 0.354912 -0.882377
2004-12-17 07:03:04 51°13.594 2°56.102 12.923138 0.068565 0.354907 -0.882377
2004-12-17 07:03:09 51°13.594 2°56.102 12.923526 0.068565 0.354907 -0.848668
2004-12-17 07:03:13 51°13.594 2°56.102 12.923526 0.068565 0.354907 -0.848668
2004-12-17 07:03:19 51°13.595 2°56.102 12.923284 0.068669 0.355461 -0.882377
2004-12-17 07:03:24 51°13.595 2°56.102 12.924545 0.068565 0.354907 -0.882377
2004-12-17 07:03:29 51°13.595 2°56.102 12.922119 0.068669 0.355456 -0.882377
2004-12-17 07:03:33 51°13.595 2°56.102 12.922847 0.068669 0.355456 -0.882377
2004-12-17 07:03:39 51°13.595 2°56.102 12.924545 0.068565 0.354896 -0.916087
2004-12-17 07:03:44 51°13.595 2°56.102 12.924545 0.068565 0.354896 -0.916087
2004-12-17 07:03:49 51°13.595 2°56.102 12.924399 0.068565 0.354907 -0.916087
2004-12-17 07:03:53 51°13.595 2°56.102 12.921489 0.068669 0.355456 -0.848668
2004-12-17 07:03:59 51°13.595 2°56.102 12.918869 0.068669 0.355456 -0.848668
2004-12-17 07:04:04 51°13.595 2°56.102 12.921052 0.068669 0.35545 -0.916087
2004-12-17 07:04:09 51°13.595 2°56.102 12.922604 0.068669 0.35545 -0.882377
2004-12-17 07:04:13 51°13.595 2°56.102 12.922604 0.068669 0.35545 -0.882377
2004-12-17 07:04:19 51°13.596 2°56.102 12.922071 0.068669 0.355445 -0.848668
2004-12-17 07:04:24 51°13.596 2°56.102 12.919597 0.068669 0.35545 -0.882377
2004-12-17 07:04:29 51°13.596 2°56.102 12.920518 0.068669 0.355445 -0.882377
2004-12-17 07:04:33 51°13.596 2°56.102 12.919209 0.068669 0.355445 -0.848668
2004-12-17 07:04:39 51°13.596 2°56.102 12.918966 0.068669 0.355445 -0.882377
2004-12-17 07:04:44 51°13.596 2°56.103 12.918966 0.068669 0.355445 -0.882377
2004-12-17 07:04:49 51°13.596 2°56.102 12.919306 0.068669 0.355445 -0.848668
2004-12-17 07:04:53 51°13.596 2°56.102 12.919694 0.068669 0.35544 -0.882377
2004-12-17 07:04:59 51°13.596 2°56.102 12.922799 0.068669 0.35544 -0.848668
2004-12-17 07:05:04 51°13.596 2°56.102 12.921634 0.068669 0.35544 -0.882377
2004-12-17 07:05:09 51°13.596 2°56.102 12.919014 0.068669 0.355445 -0.848668
2004-12-17 07:05:13 51°13.596 2°56.102 12.919014 0.068669 0.355445 -0.848668
2004-12-17 07:05:19 51°13.596 2°56.102 12.922993 0.068669 0.355434 -0.882377
2004-12-17 07:05:24 51°13.596 2°56.102 12.921586 0.068669 0.355434 -0.882377
2004-12-17 07:05:29 51°13.596 2°56.102 12.921343 0.068565 0.35488 -0.882377
2004-12-17 07:05:33 51°13.597 2°56.102 12.920518 0.068669 0.355434 -0.882377
2004-12-17 07:05:39 51°13.597 2°56.102 12.922119 0.068669 0.355429 -0.882377
2004-12-17 07:05:44 51°13.597 2°56.102 12.922119 0.068669 0.355429 -0.882377
2004-12-17 07:05:49 51°13.597 2°56.102 12.921634 0.068669 0.35544 -0.882377
2004-12-17 07:05:53 51°13.597 2°56.102 12.917219 0.068669 0.355434 -0.848668
2004-12-17 07:05:59 51°13.597 2°56.102 12.917656 0.068669 0.355429 -0.882377
2004-12-17 07:06:04 51°13.597 2°56.102 12.918917 0.068669 0.355424 -0.848668
2004-12-17 07:06:09 51°13.597 2°56.102 12.920179 0.068669 0.355429 -0.916087
2004-12-17 07:06:13 51°13.597 2°56.102 12.920179 0.068669 0.355429 -0.916087
2004-12-17 07:06:19 51°13.597 2°56.102 12.918481 0.068669 0.355424 -0.916087
2004-12-17 07:06:24 51°13.597 2°56.102 12.91654 0.068669 0.355429 -0.916087
2004-12-17 07:06:29 51°13.597 2°56.102 12.919548 0.068669 0.355418 -0.882377
2004-12-17 07:06:33 51°13.597 2°56.102 12.919063 0.068669 0.355424 -0.882377
2004-12-17 07:06:39 51°13.597 2°56.102 12.917268 0.068669 0.355424 -0.882377
2004-12-17 07:06:44 51°13.597 2°56.102 12.917268 0.068669 0.355424 -0.882377
2004-12-17 07:06:49 51°13.596 2°56.102 12.927456 0.068669 0.355424 -0.848668
2004-12-17 07:06:53 51°13.596 2°56.102 12.919306 0.068669 0.355418 -0.882377
2004-12-17 07:06:59 51°13.596 2°56.101 12.918335 0.068669 0.355418 -0.882377
2004-12-17 07:07:04 51°13.596 2°56.101 12.914114 0.068669 0.355418 -0.848668
2004-12-17 07:07:09 51°13.596 2°56.101 12.913144 0.068669 0.355418 -0.882377
2004-12-17 07:07:14 51°13.596 2°56.101 12.913144 0.068669 0.355418 -0.882377
2004-12-17 07:07:19 51°13.596 2°56.101 12.91164 0.068669 0.355418 -0.882377
2004-12-17 07:07:24 51°13.596 2°56.101 12.913435 0.068669 0.355413 -0.882377
2004-12-17 07:07:29 51°13.596 2°56.101 12.906302 0.068669 0.355413 -0.882377
2004-12-17 07:07:33 51°13.596 2°56.101 12.910718 0.068669 0.355408 -0.882377
2004-12-17 07:07:39 51°13.597 2°56.101 12.908437 0.068669 0.355413 -0.916087
2004-12-17 07:07:44 51°13.596 2°56.101 12.908437 0.068669 0.355413 -0.916087
2004-12-17 07:07:49 51°13.596 2°56.101 12.909747 0.068669 0.355408 -0.848668
2004-12-17 07:07:53 51°13.596 2°56.101 12.913629 0.068669 0.355408 -0.882377
2004-12-17 07:07:59 51°13.596 2°56.101 12.91557 0.068669 0.355408 -0.882377
2004-12-17 07:08:04 51°13.597 2°56.101 12.911882 0.068669 0.355408 -0.848668
2004-12-17 07:08:09 51°13.597 2°56.101 12.91426 0.068669 0.355408 -0.882377
2004-12-17 07:08:13 51°13.597 2°56.101 12.91426 0.068669 0.355408 -0.882377
2004-12-17 07:08:19 51°13.597 2°56.101 12.912901 0.068669 0.355408 -0.882377
2004-12-17 07:08:24 51°13.597 2°56.101 12.911349 0.068669 0.355408 -0.848668
2004-12-17 07:08:29 51°13.597 2°56.101 12.912465 0.068669 0.355402 -0.916087
2004-12-17 07:08:33 51°13.597 2°56.101 12.919257 0.068669 0.355402 -0.882377
2004-12-17 07:08:39 51°13.597 2°56.101 12.916298 0.068669 0.355402 -0.882377
2004-12-17 07:08:44 51°13.597 2°56.101 12.916298 0.068669 0.355402 -0.882377
2004-12-17 07:08:49 51°13.596 2°56.101 12.919257 0.068669 0.355397 -0.882377
2004-12-17 07:08:54 51°13.596 2°56.101 12.9195 0.068669 0.355397 -0.882377
2004-12-17 07:08:59 51°13.597 2°56.101 12.926 0.068669 0.355397 -0.848668
2004-12-17 07:09:04 51°13.597 2°56.101 12.925515 0.068669 0.355402 -0.882377
2004-12-17 07:09:09 51°13.597 2°56.101 12.922071 0.068669 0.355392 -0.882377
2004-12-17 07:09:14 51°13.597 2°56.101 12.922071 0.068669 0.355392 -0.882377
2004-12-17 07:09:19 51°13.597 2°56.101 12.922993 0.068669 0.355392 -0.882377
2004-12-17 07:09:24 51°13.596 2°56.101 12.924885 0.068669 0.355392 -0.882377
2004-12-17 07:09:29 51°13.596 2°56.101 12.926291 0.068669 0.355397 -0.882377
2004-12-17 07:09:33 51°13.596 2°56.101 12.925176 0.068669 0.355392 -0.882377
2004-12-17 07:09:39 51°13.596 2°56.101 12.924788 0.068669 0.355387 -0.848668
2004-12-17 07:09:44 51°13.596 2°56.101 12.924788 0.068669 0.355387 -0.848668
2004-12-17 07:09:49 51°13.596 2°56.101 12.923187 0.068669 0.355392 -0.848668
2004-12-17 07:09:53 51°13.596 2°56.101 12.922993 0.068669 0.355387 -0.882377
2004-12-17 07:09:59 51°13.596 2°56.101 12.925176 0.068669 0.355387 -0.848668
2004-12-17 07:10:04 51°13.596 2°56.101 12.928571 0.068669 0.355392 -0.848668
2004-12-17 07:10:09 51°13.596 2°56.101 12.925515 0.068669 0.355387 -0.882377
2004-12-17 07:10:13 51°13.596 2°56.101 12.925515 0.068669 0.355387 -0.882377
2004-12-17 07:10:19 51°13.596 2°56.101 12.928523 0.068669 0.355387 -0.916087
2004-12-17 07:10:24 51°13.596 2°56.101 12.929202 0.068669 0.355392 -0.848668
2004-12-17 07:10:29 51°13.596 2°56.102 12.926 0.068669 0.355381 -0.848668
2004-12-17 07:10:34 51°13.596 2°56.102 12.925709 0.068669 0.355392 -0.882377
2004-12-17 07:10:39 51°13.596 2°56.102 12.927407 0.068669 0.355381 -0.882377
2004-12-17 07:10:44 51°13.596 2°56.102 12.927407 0.068669 0.355381 -0.882377
2004-12-17 07:10:49 51°13.596 2°56.101 12.928571 0.068669 0.355381 -0.882377
2004-12-17 07:10:54 51°13.596 2°56.101 12.925321 0.068669 0.355381 -0.882377
2004-12-17 07:10:59 51°13.596 2°56.101 12.925661 0.068669 0.355381 -0.882377
2004-12-17 07:11:04 51°13.596 2°56.101 12.926922 0.068669 0.355381 -0.848668
2004-12-17 07:11:09 51°13.596 2°56.101 12.925127 0.068669 0.355376 -0.916087
2004-12-17 07:11:13 51°13.596 2°56.101 12.925127 0.068669 0.355376 -0.916087
2004-12-17 07:11:19 51°13.596 2°56.101 12.924593 0.068669 0.355376 -0.848668
2004-12-17 07:11:24 51°13.596 2°56.101 12.927698 0.068669 0.355376 -0.848668
2004-12-17 07:11:29 51°13.596 2°56.101 12.926776 0.068669 0.355381 -0.882377
2004-12-17 07:11:33 51°13.596 2°56.101 12.927407 0.068669 0.355371 -0.882377
2004-12-17 07:11:39 51°13.596 2°56.101 12.930269 0.068669 0.355371 -0.882377
2004-12-17 07:11:44 51°13.596 2°56.101 12.930269 0.068669 0.355371 -0.882377
2004-12-17 07:11:49 51°13.596 2°56.101 12.929735 0.068669 0.355376 -0.882377
2004-12-17 07:11:53 51°13.596 2°56.102 12.93153 0.068669 0.355376 -0.882377
2004-12-17 07:11:59 51°13.596 2°56.102 12.931627 0.068669 0.355376 -0.882377
2004-12-17 07:12:04 51°13.596 2°56.102 12.928959 0.068669 0.355371 -0.882377
2004-12-17 07:12:09 51°13.596 2°56.102 12.928571 0.068669 0.355371 -0.882377
2004-12-17 07:12:13 51°13.596 2°56.102 12.928571 0.068669 0.355371 -0.882377
2004-12-17 07:12:19 51°13.596 2°56.102 12.930997 0.068669 0.355376 -0.882377
2004-12-17 07:12:24 51°13.596 2°56.102 12.929396 0.068669 0.355371 -0.848668
2004-12-17 07:12:29 51°13.596 2°56.102 12.927213 0.068669 0.355376 -0.848668
2004-12-17 07:12:34 51°13.596 2°56.102 12.933228 0.068669 0.355371 -0.848668
2004-12-17 07:12:39 51°13.596 2°56.102 12.931676 0.068669 0.355371 -0.848668
2004-12-17 07:12:44 51°13.596 2°56.101 12.931676 0.068669 0.355371 -0.848668
2004-12-17 07:12:49 51°13.596 2°56.101 12.933325 0.068669 0.355376 -0.882377
2004-12-17 07:12:54 51°13.596 2°56.101 12.931724 0.068669 0.355365 -0.882377
2004-12-17 07:12:59 51°13.596 2°56.102 12.932112 0.068669 0.355371 -0.848668
2004-12-17 07:13:04 51°13.596 2°56.102 12.934052 0.068669 0.355376 -0.848668
2004-12-17 07:13:09 51°13.596 2°56.102 12.929299 0.068669 0.355365 -0.882377
2004-12-17 07:13:13 51°13.596 2°56.102 12.929299 0.068669 0.355365 -0.882377
2004-12-17 07:13:19 51°13.596 2°56.102 12.932791 0.068669 0.355371 -0.848668
2004-12-17 07:13:24 51°13.596 2°56.102 12.932694 0.068669 0.355371 -0.882377
2004-12-17 07:13:29 51°13.596 2°56.102 12.931094 0.068669 0.355371 -0.916087
2004-12-17 07:13:33 51°13.596 2°56.102 12.929153 0.068669 0.355371 -0.882377
2004-12-17 07:13:39 51°13.596 2°56.102 12.933664 0.068669 0.355371 -0.882377
2004-12-17 07:13:44 51°13.596 2°56.102 12.933664 0.068669 0.355371 -0.882377
2004-12-17 07:13:49 51°13.596 2°56.102 12.929396 0.068669 0.355371 -0.916087
2004-12-17 07:13:53 51°13.596 2°56.102 12.9325 0.068669 0.355371 -0.848668
2004-12-17 07:13:59 51°13.596 2°56.102 12.931433 0.068669 0.355371 -0.882377
2004-12-17 07:14:04 51°13.596 2°56.102 12.935023 0.068669 0.355371 -0.916087
2004-12-17 07:14:09 51°13.596 2°56.102 12.932937 0.068669 0.355371 -0.916087
2004-12-17 07:14:14 51°13.596 2°56.102 12.932937 0.068669 0.355371 -0.916087
2004-12-17 07:14:19 51°13.596 2°56.102 12.933616 0.068669 0.355371 -0.882377
2004-12-17 07:14:24 51°13.596 2°56.102 12.929929 0.068669 0.355365 -0.848668
2004-12-17 07:14:29 51°13.596 2°56.102 12.934052 0.068669 0.355371 -0.848668
2004-12-17 07:14:33 51°13.596 2°56.102 12.949815 0.068669 0.355371 -0.848668
2004-12-17 07:14:39 51°13.596 2°56.102 12.954276 0.068669 0.355365 -0.882377
2004-12-17 07:14:44 51°13.596 2°56.102 12.954276 0.068669 0.355365 -0.882377
2004-12-17 07:14:49 51°13.596 2°56.102 12.915667 0.068669 0.355365 -0.882377
2004-12-17 07:14:53 51°13.596 2°56.102 12.938175 0.068669 0.355365 -0.848668
2004-12-17 07:14:59 51°13.596 2°56.102 12.931288 0.068669 0.355365 -0.882377
2004-12-17 07:15:04 51°13.596 2°56.102 12.927989 0.068669 0.35536 -0.882377
2004-12-17 07:15:09 51°13.596 2°56.102 12.93575 0.068669 0.355365 -0.882377
2004-12-17 07:15:13 51°13.596 2°56.102 12.93575 0.068669 0.355365 -0.882377
2004-12-17 07:15:19 51°13.596 2°56.102 12.93347 0.068669 0.355365 -0.882377
2004-12-17 07:15:24 51°13.596 2°56.102 12.929396 0.068669 0.35536 -0.882377
2004-12-17 07:15:29 51°13.596 2°56.102 12.925806 0.068669 0.35536 -0.882377
2004-12-17 07:15:33 51°13.596 2°56.102 12.918772 0.068669 0.355365 -0.882377
2004-12-17 07:15:39 51°13.596 2°56.102 12.923623 0.068669 0.355365 -0.882377
2004-12-17 07:15:44 51°13.596 2°56.102 12.923623 0.068669 0.355365 -0.882377
2004-12-17 07:15:49 51°13.596 2°56.102 12.912028 0.068669 0.355365 -0.848668
2004-12-17 07:15:54 51°13.596 2°56.102 12.921537 0.068669 0.355365 -0.848668
2004-12-17 07:15:59 51°13.596 2°56.102 12.923187 0.068669 0.35536 -0.848668
2004-12-17 07:16:04 51°13.596 2°56.102 12.925176 0.068669 0.35536 -0.848668
2004-12-17 07:16:09 51°13.596 2°56.102 12.930318 0.068669 0.355365 -0.882377
2004-12-17 07:16:13 51°13.596 2°56.101 12.930318 0.068669 0.355365 -0.882377
2004-12-17 07:16:19 51°13.596 2°56.101 12.930609 0.068669 0.355365 -0.848668
2004-12-17 07:16:24 51°13.596 2°56.101 12.930366 0.068669 0.355365 -0.882377
2004-12-17 07:16:29 51°13.596 2°56.101 12.932112 0.068669 0.35536 -0.848668
2004-12-17 07:16:33 51°13.596 2°56.101 12.928862 0.068669 0.355355 -0.916087
2004-12-17 07:16:39 51°13.596 2°56.101 12.931773 0.068669 0.35536 -0.882377
2004-12-17 07:16:44 51°13.596 2°56.101 12.931773 0.068669 0.35536 -0.882377
2004-12-17 07:16:49 51°13.596 2°56.101 12.926776 0.068669 0.355355 -0.848668
2004-12-17 07:16:53 51°13.596 2°56.101 12.926146 0.068669 0.355365 -0.882377
2004-12-17 07:16:59 51°13.596 2°56.101 12.927116 0.068669 0.35536 -0.882377
2004-12-17 07:17:04 51°13.596 2°56.101 12.93056 0.068669 0.35536 -0.882377
2004-12-17 07:17:09 51°13.596 2°56.101 12.930366 0.068669 0.35536 -0.882377
2004-12-17 07:17:13 51°13.596 2°56.101 12.930366 0.068669 0.35536 -0.882377
2004-12-17 07:17:19 51°13.596 2°56.101 12.933761 0.068669 0.35536 -0.882377
2004-12-17 07:17:24 51°13.596 2°56.101 12.932791 0.068669 0.35536 -0.882377
2004-12-17 07:17:29 51°13.596 2°56.101 12.931288 0.068669 0.355355 -0.916087
2004-12-17 07:17:34 51°13.596 2°56.101 12.933373 0.068669 0.35536 -0.882377
2004-12-17 07:17:39 51°13.596 2°56.101 12.93284 0.068669 0.35536 -0.882377
2004-12-17 07:17:44 51°13.596 2°56.101 12.93284 0.068669 0.35536 -0.882377
2004-12-17 07:17:49 51°13.597 2°56.101 12.932694 0.068669 0.35536 -0.916087
2004-12-17 07:17:53 51°13.597 2°56.101 12.931094 0.068669 0.35536 -0.882377
2004-12-17 07:17:59 51°13.597 2°56.101 12.933228 0.068669 0.355355 -0.848668
2004-12-17 07:18:04 51°13.596 2°56.101 12.932258 0.068669 0.35536 -0.882377
2004-12-17 07:18:09 51°13.596 2°56.102 12.936623 0.068669 0.35536 -0.882377
2004-12-17 07:18:13 51°13.596 2°56.102 12.936623 0.068669 0.35536 -0.882377
2004-12-17 07:18:19 51°13.596 2°56.102 12.940697 0.068669 0.35536 -0.882377
2004-12-17 07:18:24 51°13.596 2°56.102 12.939533 0.068669 0.355365 -0.882377
2004-12-17 07:18:29 51°13.596 2°56.102 12.938321 0.068669 0.355355 -0.882377
2004-12-17 07:18:33 51°13.596 2°56.102 12.942249 0.068669 0.35536 -0.882377
2004-12-17 07:18:39 51°13.596 2°56.102 12.941813 0.068669 0.35536 -0.882377
2004-12-17 07:18:44 51°13.596 2°56.102 12.941813 0.068669 0.35536 -0.882377
2004-12-17 07:18:49 51°13.596 2°56.102 12.944432 0.068669 0.35536 -0.848668
2004-12-17 07:18:53 51°13.596 2°56.102 12.94642 0.068669 0.35536 -0.848668
2004-12-17 07:18:59 51°13.596 2°56.102 12.944432 0.068669 0.35536 -0.848668
2004-12-17 07:19:04 51°13.596 2°56.102 12.944432 0.068669 0.35536 -0.882377
2004-12-17 07:19:09 51°13.596 2°56.102 12.941425 0.068669 0.35536 -0.882377
2004-12-17 07:19:14 51°13.596 2°56.102 12.941425 0.068669 0.35536 -0.882377
2004-12-17 07:19:19 51°13.596 2°56.102 12.939921 0.068669 0.35536 -0.848668
2004-12-17 07:19:24 51°13.596 2°56.102 12.940697 0.068669 0.35536 -0.882377
2004-12-17 07:19:29 51°13.596 2°56.102 12.939679 0.068669 0.355355 -0.882377
2004-12-17 07:19:33 51°13.596 2°56.102 12.938418 0.068669 0.35536 -0.882377
2004-12-17 07:19:39 51°13.596 2°56.102 12.939 0.068669 0.355355 -0.916087
2004-12-17 07:19:44 51°13.596 2°56.102 12.939 0.068669 0.355355 -0.916087
2004-12-17 07:19:49 51°13.596 2°56.102 12.937593 0.068669 0.35536 -0.882377
2004-12-17 07:19:53 51°13.596 2°56.102 12.936332 0.068669 0.35536 -0.882377
2004-12-17 07:19:59 51°13.596 2°56.102 12.937593 0.068669 0.35536 -0.882377
2004-12-17 07:20:04 51°13.596 2°56.102 12.937302 0.068669 0.355355 -0.848668
2004-12-17 07:20:09 51°13.596 2°56.102 12.940697 0.068669 0.355355 -0.882377
2004-12-17 07:20:13 51°13.596 2°56.102 12.940697 0.068669 0.355355 -0.882377
2004-12-17 07:20:19 51°13.596 2°56.102 12.937981 0.068669 0.35536 -0.882377
2004-12-17 07:20:24 51°13.596 2°56.102 12.935508 0.068669 0.355355 -0.882377
2004-12-17 07:20:29 51°13.596 2°56.102 12.934101 0.068669 0.355355 -0.882377
2004-12-17 07:20:34 51°13.596 2°56.102 12.934441 0.068669 0.355355 -0.848668
2004-12-17 07:20:39 51°13.596 2°56.102 12.935362 0.068669 0.355355 -0.882377
2004-12-17 07:20:44 51°13.596 2°56.102 12.935362 0.068669 0.355355 -0.882377
2004-12-17 07:20:49 51°13.596 2°56.102 12.937302 0.068669 0.35536 -0.882377
2004-12-17 07:20:54 51°13.596 2°56.102 12.936138 0.068669 0.355355 -0.848668
2004-12-17 07:20:59 51°13.596 2°56.102 12.937545 0.068669 0.35536 -0.848668
2004-12-17 07:21:04 51°13.595 2°56.102 12.937254 0.068669 0.35536 -0.882377
2004-12-17 07:21:09 51°13.595 2°56.102 12.935314 0.068669 0.35536 -0.848668
2004-12-17 07:21:13 51°13.595 2°56.102 12.935314 0.068669 0.35536 -0.848668
2004-12-17 07:21:19 51°13.595 2°56.102 12.93769 0.068669 0.355355 -0.882377
2004-12-17 07:21:24 51°13.596 2°56.102 12.936575 0.068669 0.35536 -0.916087
2004-12-17 07:21:29 51°13.596 2°56.102 12.933519 0.068669 0.355349 -0.848668
2004-12-17 07:21:33 51°13.596 2°56.102 12.930851 0.068669 0.35536 -0.848668
2004-12-17 07:21:39 51°13.596 2°56.102 12.931433 0.068669 0.355355 -0.882377
2004-12-17 07:21:44 51°13.596 2°56.102 12.931433 0.068669 0.355355 -0.882377
2004-12-17 07:21:49 51°13.596 2°56.102 12.932403 0.068669 0.355355 -0.848668
2004-12-17 07:21:53 51°13.596 2°56.102 12.931676 0.068669 0.35536 -0.848668
2004-12-17 07:21:59 51°13.596 2°56.102 12.935993 0.068669 0.355355 -0.882377
2004-12-17 07:22:04 51°13.596 2°56.102 12.930512 0.068669 0.35536 -0.848668
2004-12-17 07:22:09 51°13.596 2°56.102 12.933373 0.068669 0.355355 -0.848668
2004-12-17 07:22:13 51°13.596 2°56.102 12.933373 0.068669 0.355355 -0.848668
2004-12-17 07:22:19 51°13.596 2°56.101 12.936866 0.068669 0.355355 -0.882377
2004-12-17 07:22:24 51°13.596 2°56.101 12.935605 0.068669 0.355355 -0.882377
2004-12-17 07:22:29 51°13.596 2°56.101 12.935071 0.068669 0.35536 -0.848668
2004-12-17 07:22:34 51°13.596 2°56.101 12.936478 0.068669 0.355355 -0.916087
2004-12-17 07:22:39 51°13.596 2°56.101 12.935459 0.068669 0.355355 -0.848668
2004-12-17 07:22:44 51°13.596 2°56.101 12.935459 0.068669 0.355355 -0.848668
2004-12-17 07:22:49 51°13.596 2°56.101 12.936478 0.068669 0.35536 -0.848668
2004-12-17 07:22:53 51°13.595 2°56.101 12.938418 0.068669 0.35536 -0.882377
2004-12-17 07:22:59 51°13.596 2°56.101 12.936478 0.068669 0.35536 -0.916087
2004-12-17 07:23:04 51°13.595 2°56.101 12.945062 0.068669 0.355355 -0.882377
2004-12-17 07:23:09 51°13.595 2°56.102 12.938127 0.068669 0.355355 -0.882377
2004-12-17 07:23:13 51°13.595 2°56.102 12.938127 0.068669 0.355355 -0.882377
2004-12-17 07:23:19 51°13.595 2°56.102 12.939727 0.068669 0.35536 -0.882377
2004-12-17 07:23:24 51°13.595 2°56.102 12.941085 0.068669 0.35536 -0.882377
2004-12-17 07:23:29 51°13.595 2°56.102 12.93769 0.068669 0.355355 -0.882377
2004-12-17 07:23:33 51°13.595 2°56.101 12.935314 0.068669 0.35536 -0.848668
2004-12-17 07:23:39 51°13.595 2°56.101 12.936138 0.068669 0.355355 -0.882377
2004-12-17 07:23:44 51°13.595 2°56.101 12.936138 0.068669 0.355355 -0.882377
2004-12-17 07:23:49 51°13.595 2°56.101 12.936769 0.068669 0.355355 -0.882377
2004-12-17 07:23:54 51°13.595 2°56.101 12.936138 0.068669 0.35536 -0.848668
2004-12-17 07:23:59 51°13.595 2°56.101 12.934732 0.068669 0.35536 -0.848668
2004-12-17 07:24:04 51°13.595 2°56.101 12.936478 0.068669 0.35536 -0.882377
2004-12-17 07:24:09 51°13.595 2°56.101 12.936623 0.068669 0.35536 -0.848668
2004-12-17 07:24:14 51°13.595 2°56.101 12.936623 0.068669 0.35536 -0.848668
2004-12-17 07:24:19 51°13.595 2°56.101 12.936914 0.068669 0.355355 -0.848668
2004-12-17 07:24:24 51°13.595 2°56.101 12.939242 0.068669 0.355365 -0.848668
2004-12-17 07:24:29 51°13.595 2°56.101 12.938175 0.068669 0.35536 -0.848668
2004-12-17 07:24:33 51°13.595 2°56.101 12.934489 0.068669 0.355355 -0.848668
2004-12-17 07:24:39 51°13.595 2°56.101 12.936284 0.068669 0.35536 -0.882377
2004-12-17 07:24:44 51°13.595 2°56.101 12.936284 0.068669 0.35536 -0.882377
2004-12-17 07:24:49 51°13.595 2°56.102 12.938709 0.068669 0.35536 -0.848668
2004-12-17 07:24:53 51°13.595 2°56.102 12.936187 0.068669 0.35536 -0.848668
2004-12-17 07:24:59 51°13.595 2°56.101 12.933907 0.068669 0.355355 -0.882377
2004-12-17 07:25:04 51°13.595 2°56.101 12.933519 0.068669 0.35536 -0.882377
2004-12-17 07:25:09 51°13.595 2°56.101 12.935896 0.068669 0.35536 -0.848668
2004-12-17 07:25:13 51°13.595 2°56.102 12.935896 0.068669 0.35536 -0.848668
2004-12-17 07:25:19 51°13.595 2°56.102 12.933325 0.068669 0.355355 -0.882377
2004-12-17 07:25:24 51°13.595 2°56.102 12.93284 0.068669 0.35536 -0.882377
2004-12-17 07:25:29 51°13.595 2°56.102 12.927941 0.068669 0.355355 -0.882377
2004-12-17 07:25:34 51°13.595 2°56.102 12.936187 0.068669 0.355355 -0.882377
2004-12-17 07:25:39 51°13.595 2°56.102 12.933907 0.068669 0.35536 -0.848668
2004-12-17 07:25:44 51°13.595 2°56.102 12.933907 0.068669 0.35536 -0.848668
2004-12-17 07:25:49 51°13.595 2°56.102 12.917074 0.068669 0.355355 -0.848668
2004-12-17 07:25:54 51°13.595 2°56.102 12.924836 0.068669 0.35536 -0.916087
2004-12-17 07:25:59 51°13.595 2°56.102 12.927213 0.068669 0.355355 -0.848668
2004-12-17 07:26:04 51°13.595 2°56.102 12.925224 0.068669 0.35536 -0.882377
2004-12-17 07:26:09 51°13.595 2°56.102 12.926437 0.068669 0.355355 -0.882377
2004-12-17 07:26:14 51°13.595 2°56.102 12.926437 0.068669 0.355355 -0.882377
2004-12-17 07:26:19 51°13.595 2°56.102 12.92503 0.068669 0.355355 -0.882377
2004-12-17 07:26:24 51°13.595 2°56.102 12.924496 0.068669 0.355355 -0.848668
2004-12-17 07:26:29 51°13.595 2°56.102 12.927407 0.068669 0.355355 -0.882377
2004-12-17 07:26:33 51°13.595 2°56.102 12.927892 0.068669 0.35536 -0.848668
2004-12-17 07:26:39 51°13.595 2°56.102 12.928911 0.068669 0.35536 -0.882377
2004-12-17 07:26:42 51°13.595 2°56.102 12.927553 0.068669 0.355349 -0.848668
2004-12-17 07:26:49 51°13.595 2°56.102 12.927553 0.068669 0.355349 -0.848668
2004-12-17 07:26:53 51°13.595 2°56.102 12.929735 0.068669 0.35536 -0.848668
2004-12-17 07:26:59 51°13.595 2°56.102 12.928959 0.068669 0.355355 -0.848668
2004-12-17 07:27:04 51°13.595 2°56.102 12.929153 0.068669 0.355355 -0.882377
2004-12-17 07:27:09 51°13.595 2°56.102 12.929153 0.068669 0.355355 -0.848668
2004-12-17 07:27:14 51°13.595 2°56.102 12.929153 0.068669 0.355355 -0.848668
2004-12-17 07:27:19 51°13.595 2°56.102 12.932888 0.068669 0.355355 -0.882377
2004-12-17 07:27:24 51°13.595 2°56.102 12.930803 0.068669 0.35536 -0.882377
2004-12-17 07:27:29 51°13.595 2°56.102 12.933179 0.068669 0.355355 -0.882377
2004-12-17 07:27:34 51°13.595 2°56.102 12.932597 0.068669 0.35536 -0.882377
2004-12-17 07:27:39 51°13.595 2°56.102 12.931094 0.068669 0.355355 -0.882377
2004-12-17 07:27:44 51°13.595 2°56.102 12.931094 0.068669 0.355355 -0.882377
2004-12-17 07:27:49 51°13.594 2°56.102 12.932549 0.068669 0.355355 -0.882377
2004-12-17 07:27:54 51°13.594 2°56.102 12.932355 0.068669 0.355355 -0.882377
2004-12-17 07:27:59 51°13.594 2°56.102 12.932403 0.068669 0.355355 -0.882377
2004-12-17 07:28:04 51°13.594 2°56.102 12.932209 0.068669 0.355355 -0.848668
2004-12-17 07:28:09 51°13.594 2°56.102 12.930851 0.068669 0.35536 -0.882377
2004-12-17 07:28:13 51°13.594 2°56.102 12.930851 0.068669 0.35536 -0.882377
2004-12-17 07:28:19 51°13.594 2°56.102 12.930512 0.068669 0.355355 -0.848668
2004-12-17 07:28:24 51°13.594 2°56.102 12.932646 0.068669 0.35536 -0.848668
2004-12-17 07:28:29 51°13.594 2°56.102 12.934489 0.068669 0.35536 -0.882377
2004-12-17 07:28:33 51°13.594 2°56.102 12.93381 0.068669 0.355355 -0.882377
2004-12-17 07:28:39 51°13.595 2°56.102 12.933179 0.068669 0.35536 -0.848668
2004-12-17 07:28:44 51°13.595 2°56.102 12.933179 0.068669 0.35536 -0.848668
2004-12-17 07:28:49 51°13.595 2°56.101 12.933713 0.068669 0.355355 -0.882377
2004-12-17 07:28:54 51°13.595 2°56.102 12.93347 0.068669 0.355355 -0.882377
2004-12-17 07:28:59 51°13.595 2°56.101 12.933373 0.068669 0.35536 -0.882377
2004-12-17 07:29:04 51°13.595 2°56.102 12.933955 0.068669 0.35536 -0.882377
2004-12-17 07:29:09 51°13.595 2°56.102 12.938272 0.068669 0.35536 -0.882377
2004-12-17 07:29:14 51°13.595 2°56.102 12.938272 0.068669 0.35536 -0.882377
2004-12-17 07:29:19 51°13.595 2°56.102 12.937884 0.068669 0.35536 -0.882377
2004-12-17 07:29:24 51°13.595 2°56.102 12.938418 0.068669 0.35536 -0.848668
2004-12-17 07:29:29 51°13.596 2°56.102 12.935508 0.068669 0.35536 -0.882377
2004-12-17 07:29:34 51°13.596 2°56.101 12.936187 0.068669 0.35536 -0.916087
2004-12-17 07:29:39 51°13.596 2°56.101 12.938175 0.068669 0.35536 -0.848668
2004-12-17 07:29:44 51°13.596 2°56.101 12.938175 0.068669 0.35536 -0.848668
2004-12-17 07:29:49 51°13.596 2°56.101 12.938175 0.068669 0.35536 -0.882377
2004-12-17 07:29:53 51°13.596 2°56.101 12.935459 0.068669 0.35536 -0.882377
2004-12-17 07:29:59 51°13.596 2°56.101 12.937157 0.068669 0.35536 -0.848668
2004-12-17 07:30:04 51°13.596 2°56.101 12.937254 0.068669 0.35536 -0.882377
2004-12-17 07:30:09 51°13.596 2°56.101 12.937981 0.068669 0.355365 -0.882377
2004-12-17 07:30:13 51°13.596 2°56.101 12.937981 0.068669 0.355365 -0.882377
2004-12-17 07:30:19 51°13.596 2°56.101 12.938806 0.068669 0.355365 -0.848668
2004-12-17 07:30:24 51°13.596 2°56.101 12.938951 0.068669 0.355365 -0.916087
2004-12-17 07:30:29 51°13.596 2°56.101 12.940697 0.068669 0.355365 -0.848668
2004-12-17 07:30:34 51°13.596 2°56.101 12.941813 0.068669 0.355365 -0.882377
2004-12-17 07:30:39 51°13.596 2°56.101 12.937399 0.068669 0.355365 -0.882377
2004-12-17 07:30:44 51°13.596 2°56.101 12.937399 0.068669 0.355365 -0.882377
2004-12-17 07:30:49 51°13.596 2°56.101 12.939921 0.068669 0.355365 -0.848668
2004-12-17 07:30:54 51°13.596 2°56.101 12.938854 0.068669 0.35536 -0.882377
2004-12-17 07:30:59 51°13.596 2°56.101 12.940503 0.068669 0.355371 -0.882377
2004-12-17 07:31:04 51°13.596 2°56.101 12.937836 0.068669 0.35536 -0.848668
2004-12-17 07:31:09 51°13.596 2°56.102 12.939436 0.068669 0.355365 -0.916087
2004-12-17 07:31:14 51°13.596 2°56.102 12.939436 0.068669 0.355365 -0.916087
2004-12-17 07:31:19 51°13.596 2°56.102 12.941473 0.068669 0.355371 -0.882377
2004-12-17 07:31:24 51°13.596 2°56.102 12.940115 0.068669 0.355365 -0.882377
2004-12-17 07:31:29 51°13.596 2°56.102 12.940261 0.068669 0.355371 -0.848668
2004-12-17 07:31:33 51°13.596 2°56.102 12.94351 0.068669 0.355365 -0.882377
2004-12-17 07:31:39 51°13.596 2°56.102 12.945741 0.068669 0.355371 -0.882377
2004-12-17 07:31:44 51°13.595 2°56.101 12.945741 0.068669 0.355371 -0.882377
2004-12-17 07:31:49 51°13.595 2°56.101 12.953985 0.068669 0.355371 -0.882377
2004-12-17 07:31:54 51°13.595 2°56.101 12.948117 0.068669 0.355365 -0.848668
2004-12-17 07:31:59 51°13.595 2°56.101 12.945547 0.068669 0.355365 -0.848668
2004-12-17 07:32:04 51°13.595 2°56.101 12.950784 0.068669 0.355371 -0.848668
2004-12-17 07:32:09 51°13.595 2°56.101 12.941813 0.068669 0.35536 -0.882377
2004-12-17 07:32:14 51°13.595 2°56.101 12.941813 0.068669 0.35536 -0.882377
2004-12-17 07:32:19 51°13.595 2°56.101 12.946711 0.068669 0.355365 -0.882377
2004-12-17 07:32:24 51°13.595 2°56.101 12.94642 0.068669 0.355365 -0.882377
2004-12-17 07:32:29 51°13.595 2°56.101 12.950348 0.068669 0.355371 -0.882377
2004-12-17 07:32:34 51°13.595 2°56.101 12.950203 0.068669 0.355371 -0.848668
2004-12-17 07:32:39 51°13.595 2°56.101 12.94705 0.068669 0.355371 -0.882377
2004-12-17 07:32:44 51°13.595 2°56.101 12.94705 0.068669 0.355371 -0.882377
2004-12-17 07:32:49 51°13.595 2°56.101 12.948117 0.068669 0.355371 -0.882377
2004-12-17 07:32:54 51°13.595 2°56.101 12.948602 0.068669 0.355371 -0.848668
2004-12-17 07:32:59 51°13.595 2°56.102 12.954179 0.068669 0.355365 -0.848668
2004-12-17 07:33:04 51°13.595 2°56.102 12.953452 0.068669 0.355371 -0.882377
2004-12-17 07:33:09 51°13.595 2°56.102 12.953258 0.068669 0.355365 -0.882377
2004-12-17 07:33:14 51°13.595 2°56.102 12.953258 0.068669 0.355365 -0.882377
2004-12-17 07:33:19 51°13.595 2°56.102 12.9551 0.068669 0.355365 -0.848668
2004-12-17 07:33:24 51°13.595 2°56.102 12.959464 0.068669 0.355365 -0.882377
2004-12-17 07:33:29 51°13.595 2°56.102 12.962276 0.068669 0.355371 -0.882377
2004-12-17 07:33:33 51°13.595 2°56.102 12.965913 0.068669 0.355376 -0.848668
2004-12-17 07:33:39 51°13.595 2°56.102 12.966058 0.068669 0.355371 -0.882377
2004-12-17 07:33:44 51°13.595 2°56.102 12.966058 0.068669 0.355371 -0.882377
2004-12-17 07:33:49 51°13.595 2°56.102 12.966155 0.068669 0.355371 -0.882377
2004-12-17 07:33:54 51°13.595 2°56.102 12.972069 0.068669 0.355371 -0.882377
2004-12-17 07:33:59 51°13.595 2°56.102 12.979971 0.068669 0.355365 -0.882377
2004-12-17 07:34:04 51°13.595 2°56.102 12.977256 0.068669 0.355371 -0.882377
2004-12-17 07:34:09 51°13.595 2°56.102 12.976675 0.068669 0.355371 -0.848668
2004-12-17 07:34:14 51°13.595 2°56.102 12.976675 0.068669 0.355371 -0.848668
2004-12-17 07:34:19 51°13.595 2°56.102 12.98094 0.068669 0.355371 -0.882377
2004-12-17 07:34:24 51°13.595 2°56.102 12.979777 0.068669 0.355371 -0.848668
2004-12-17 07:34:29 51°13.595 2°56.102 12.980892 0.068669 0.355376 -0.848668
2004-12-17 07:34:34 51°13.595 2°56.102 12.979195 0.068669 0.355376 -0.916087
2004-12-17 07:34:39 51°13.596 2°56.102 12.979486 0.068669 0.355376 -0.882377
2004-12-17 07:34:44 51°13.596 2°56.102 12.979486 0.068669 0.355376 -0.882377
2004-12-17 07:34:49 51°13.596 2°56.102 12.979777 0.068669 0.355371 -0.848668
2004-12-17 07:34:54 51°13.596 2°56.102 12.984527 0.068669 0.355371 -0.882377
2004-12-17 07:34:59 51°13.596 2°56.102 12.983412 0.068669 0.355371 -0.848668
2004-12-17 07:35:04 51°13.596 2°56.102 12.983897 0.068669 0.355376 -0.882377
2004-12-17 07:35:09 51°13.596 2°56.102 12.984042 0.068669 0.355371 -0.882377
2004-12-17 07:35:14 51°13.596 2°56.102 12.984042 0.068669 0.355371 -0.882377
2004-12-17 07:35:19 51°13.596 2°56.102 12.98666 0.068669 0.355371 -0.848668
2004-12-17 07:35:24 51°13.596 2°56.102 12.989568 0.068669 0.355371 -0.882377
2004-12-17 07:35:29 51°13.596 2°56.102 12.986272 0.068669 0.355371 -0.848668
2004-12-17 07:35:34 51°13.596 2°56.102 12.988501 0.068669 0.355376 -0.848668
2004-12-17 07:35:39 51°13.596 2°56.102 12.985642 0.068669 0.355376 -0.882377
2004-12-17 07:35:44 51°13.596 2°56.102 12.985642 0.068669 0.355376 -0.882377
2004-12-17 07:35:49 51°13.596 2°56.102 12.989568 0.068669 0.355371 -0.848668
2004-12-17 07:35:54 51°13.596 2°56.102 12.992136 0.068669 0.355376 -0.882377
2004-12-17 07:35:59 51°13.596 2°56.102 12.990198 0.068669 0.355376 -0.882377
2004-12-17 07:36:04 51°13.596 2°56.102 12.988792 0.068669 0.355371 -0.848668
2004-12-17 07:36:09 51°13.596 2°56.102 12.972894 0.068669 0.355376 -0.882377
2004-12-17 07:36:14 51°13.596 2°56.102 12.972894 0.068669 0.355376 -0.882377
2004-12-17 07:36:19 51°13.596 2°56.103 12.980795 0.068669 0.355376 -0.882377
2004-12-17 07:36:22 51°13.596 2°56.103 12.983121 0.068669 0.355381 -0.882377
2004-12-17 07:36:25 51°13.596 2°56.103 12.986223 0.068669 0.355371 -0.882377
2004-12-17 07:36:31 51°13.596 2°56.103 12.983412 0.068669 0.355376 -0.882377
2004-12-17 07:36:35 51°13.596 2°56.103 12.985933 0.068669 0.355376 -0.882377
2004-12-17 07:36:40 51°13.596 2°56.103 12.985933 0.068669 0.355376 -0.882377
2004-12-17 07:36:46 51°13.596 2°56.103 12.989228 0.068669 0.355376 -0.848668
2004-12-17 07:36:51 51°13.596 2°56.103 12.991845 0.068669 0.355376 -0.916087
2004-12-17 07:36:55 51°13.596 2°56.103 12.98695 0.068669 0.355376 -0.882377
2004-12-17 07:37:00 51°13.596 2°56.103 12.990488 0.068669 0.355376 -0.848668
2004-12-17 07:37:05 51°13.596 2°56.103 12.991555 0.068669 0.355371 -0.882377
2004-12-17 07:37:11 51°13.596 2°56.103 12.991555 0.068669 0.355371 -0.882377
2004-12-17 07:37:15 51°13.596 2°56.103 12.993154 0.068669 0.355376 -0.882377
2004-12-17 07:37:19 51°13.596 2°56.103 12.995189 0.068669 0.355376 -0.848668
2004-12-17 07:37:24 51°13.596 2°56.103 12.992524 0.068669 0.355376 -0.848668
2004-12-17 07:37:31 51°13.596 2°56.103 12.992572 0.068669 0.355376 -0.882377
2004-12-17 07:37:35 51°13.596 2°56.103 12.999066 0.068669 0.355381 -0.882377
2004-12-17 07:37:40 51°13.595 2°56.103 12.999066 0.068669 0.355381 -0.882377
2004-12-17 07:37:45 51°13.596 2°56.103 12.995238 0.068669 0.355376 -0.882377
2004-12-17 07:37:51 51°13.595 2°56.103 12.997564 0.068669 0.355376 -0.848668
2004-12-17 07:37:55 51°13.595 2°56.103 12.999842 0.068669 0.355381 -0.848668
2004-12-17 07:37:59 51°13.595 2°56.103 12.997467 0.068669 0.355376 -0.882377
2004-12-17 07:38:04 51°13.595 2°56.103 12.997322 0.068669 0.355376 -0.882377
2004-12-17 07:38:11 51°13.595 2°56.103 12.997322 0.068669 0.355376 -0.882377
2004-12-17 07:38:15 51°13.595 2°56.103 13.000326 0.068669 0.355376 -0.882377
2004-12-17 07:38:20 51°13.595 2°56.102 13.002652 0.068669 0.355376 -0.848668
2004-12-17 07:38:25 51°13.595 2°56.102 13.002022 0.068669 0.355376 -0.848668
2004-12-17 07:38:31 51°13.595 2°56.102 12.998824 0.068669 0.355381 -0.882377
2004-12-17 07:38:35 51°13.595 2°56.102 13.0027 0.068669 0.355376 -0.882377
2004-12-17 07:38:39 51°13.595 2°56.102 13.0027 0.068669 0.355376 -0.882377
2004-12-17 07:38:44 51°13.595 2°56.102 13.004736 0.068669 0.355376 -0.882377
2004-12-17 07:38:51 51°13.595 2°56.102 13.005075 0.068669 0.355376 -0.848668
2004-12-17 07:38:55 51°13.595 2°56.102 13.003379 0.068669 0.355376 -0.882377
2004-12-17 07:39:00 51°13.595 2°56.102 13.005995 0.068669 0.355371 -0.882377
2004-12-17 07:39:05 51°13.595 2°56.102 13.005608 0.068669 0.355371 -0.848668
2004-12-17 07:39:11 51°13.595 2°56.102 13.005608 0.068669 0.355371 -0.848668
2004-12-17 07:39:15 51°13.595 2°56.102 13.007401 0.068669 0.355376 -0.848668
2004-12-17 07:39:21 51°13.595 2°56.102 13.006044 0.068669 0.355376 -0.882377
2004-12-17 07:39:25 51°13.595 2°56.102 12.997467 0.068669 0.355376 -0.848668
2004-12-17 07:39:31 51°13.595 2°56.102 13.009678 0.068669 0.355371 -0.916087
2004-12-17 07:39:35 51°13.595 2°56.102 13.006431 0.068669 0.355376 -0.848668
2004-12-17 07:39:40 51°13.595 2°56.102 13.006431 0.068669 0.355376 -0.848668
2004-12-17 07:39:45 51°13.595 2°56.102 13.007255 0.068669 0.355376 -0.882377
2004-12-17 07:39:51 51°13.595 2°56.102 13.00837 0.068669 0.355381 -0.882377
2004-12-17 07:39:55 51°13.595 2°56.102 13.00585 0.068669 0.355376 -0.848668
2004-12-17 07:39:59 51°13.595 2°56.102 13.016509 0.068669 0.355376 -0.882377
2004-12-17 07:40:05 51°13.595 2°56.103 13.004929 0.068669 0.355376 -0.882377
2004-12-17 07:40:11 51°13.595 2°56.103 13.004929 0.068669 0.355376 -0.882377
2004-12-17 07:40:15 51°13.595 2°56.103 13.018108 0.068669 0.355371 -0.882377
2004-12-17 07:40:20 51°13.595 2°56.102 13.017623 0.068669 0.355376 -0.882377
2004-12-17 07:40:25 51°13.595 2°56.102 13.015443 0.068669 0.355376 -0.882377
2004-12-17 07:40:31 51°13.595 2°56.102 13.013748 0.068669 0.355376 -0.848668
2004-12-17 07:40:35 51°13.595 2°56.102 13.017817 0.068669 0.355376 -0.882377
2004-12-17 07:40:39 51°13.595 2°56.103 13.017817 0.068669 0.355376 -0.882377
2004-12-17 07:40:45 51°13.595 2°56.103 13.016121 0.068669 0.355376 -0.882377
2004-12-17 07:40:51 51°13.595 2°56.103 13.018205 0.068669 0.355376 -0.916087
2004-12-17 07:40:55 51°13.595 2°56.103 13.018641 0.068669 0.355376 -0.848668
2004-12-17 07:41:00 51°13.595 2°56.103 13.017478 0.068669 0.355376 -0.848668
2004-12-17 07:41:05 51°13.595 2°56.103 13.020046 0.068669 0.355371 -0.882377
2004-12-17 07:41:11 51°13.595 2°56.103 13.020046 0.068669 0.355371 -0.882377
2004-12-17 07:41:15 51°13.595 2°56.103 13.020433 0.068669 0.355371 -0.848668
2004-12-17 07:41:21 51°13.595 2°56.103 13.023533 0.068669 0.355371 -0.882377
2004-12-17 07:41:25 51°13.595 2°56.103 13.024793 0.068669 0.355376 -0.882377
2004-12-17 07:41:31 51°13.595 2°56.103 13.025665 0.068669 0.355376 -0.882377
2004-12-17 07:41:35 51°13.595 2°56.103 13.024696 0.068669 0.355371 -0.916087
2004-12-17 07:41:40 51°13.595 2°56.103 13.024696 0.068669 0.355371 -0.916087
2004-12-17 07:41:45 51°13.595 2°56.103 13.02644 0.068669 0.355376 -0.848668
2004-12-17 07:41:51 51°13.595 2°56.103 13.026149 0.068669 0.355371 -0.916087
2004-12-17 07:41:55 51°13.595 2°56.103 13.024115 0.068669 0.355371 -0.882377
2004-12-17 07:41:59 51°13.595 2°56.103 13.027312 0.068669 0.355376 -0.848668
2004-12-17 07:42:05 51°13.595 2°56.103 13.025374 0.068669 0.355376 -0.848668
2004-12-17 07:42:11 51°13.595 2°56.103 13.025374 0.068669 0.355376 -0.848668
2004-12-17 07:42:15 51°13.595 2°56.103 13.025326 0.068669 0.355371 -0.848668
2004-12-17 07:42:20 51°13.595 2°56.103 13.031623 0.068669 0.355371 -0.882377
2004-12-17 07:42:25 51°13.595 2°56.103 13.029395 0.068669 0.355376 -0.882377
2004-12-17 07:42:31 51°13.595 2°56.103 13.029007 0.068669 0.355371 -0.848668
2004-12-17 07:42:35 51°13.595 2°56.103 13.029782 0.068669 0.355371 -0.882377
2004-12-17 07:42:41 51°13.595 2°56.103 13.029782 0.068669 0.355371 -0.882377
2004-12-17 07:42:45 51°13.595 2°56.103 13.030266 0.068669 0.355371 -0.882377
2004-12-17 07:42:51 51°13.595 2°56.103 13.033705 0.068669 0.355376 -0.848668
2004-12-17 07:42:55 51°13.595 2°56.103 13.032446 0.068669 0.355371 -0.882377
2004-12-17 07:43:00 51°13.595 2°56.103 13.032688 0.068669 0.355376 -0.882377
2004-12-17 07:43:05 51°13.595 2°56.103 13.032737 0.068669 0.355371 -0.882377
2004-12-17 07:43:11 51°13.595 2°56.103 13.032737 0.068669 0.355371 -0.882377
2004-12-17 07:43:15 51°13.595 2°56.103 13.033269 0.068669 0.355376 -0.882377
2004-12-17 07:43:19 51°13.595 2°56.103 13.032543 0.068669 0.355371 -0.882377
2004-12-17 07:43:25 51°13.595 2°56.103 13.034674 0.068669 0.355371 -0.882377
2004-12-17 07:43:31 51°13.595 2°56.103 13.037774 0.068669 0.355381 -0.848668
2004-12-17 07:43:35 51°13.595 2°56.103 13.037435 0.068669 0.355376 -0.882377
2004-12-17 07:43:40 51°13.595 2°56.103 13.037435 0.068669 0.355376 -0.882377
2004-12-17 07:43:45 51°13.595 2°56.103 13.033124 0.068669 0.355376 -0.882377
2004-12-17 07:43:51 51°13.594 2°56.103 13.036272 0.068669 0.355376 -0.882377
2004-12-17 07:43:55 51°13.594 2°56.103 13.036272 0.068669 0.355371 -0.882377
2004-12-17 07:43:59 51°13.594 2°56.103 13.023533 0.068669 0.355371 -0.882377
2004-12-17 07:44:05 51°13.594 2°56.103 13.035788 0.068669 0.355376 -0.882377
2004-12-17 07:44:11 51°13.594 2°56.103 13.035788 0.068669 0.355376 -0.882377
2004-12-17 07:44:15 51°13.594 2°56.103 13.034674 0.068669 0.355371 -0.882377
2004-12-17 07:44:20 51°13.594 2°56.103 13.029637 0.068669 0.355371 -0.848668
2004-12-17 07:44:25 51°13.594 2°56.103 13.035933 0.068669 0.355376 -0.848668
2004-12-17 07:44:31 51°13.594 2°56.103 13.032785 0.068669 0.355371 -0.882377
2004-12-17 07:44:35 51°13.594 2°56.103 13.037192 0.068669 0.355376 -0.882377
2004-12-17 07:44:41 51°13.594 2°56.104 13.037192 0.068669 0.355376 -0.882377
2004-12-17 07:44:45 51°13.594 2°56.104 13.039275 0.068669 0.355371 -0.882377
2004-12-17 07:44:51 51°13.595 2°56.104 13.037774 0.068669 0.355371 -0.882377
2004-12-17 07:44:55 51°13.595 2°56.104 13.036418 0.068669 0.355371 -0.882377
2004-12-17 07:45:00 51°13.595 2°56.104 13.039662 0.068669 0.355376 -0.848668
2004-12-17 07:45:05 51°13.595 2°56.104 13.041793 0.068669 0.355376 -0.882377
2004-12-17 07:45:11 51°13.595 2°56.104 13.041793 0.068669 0.355376 -0.882377
2004-12-17 07:45:15 51°13.595 2°56.104 13.037628 0.068669 0.355376 -0.848668
2004-12-17 07:45:19 51°13.595 2°56.104 13.042084 0.068669 0.355371 -0.882377
2004-12-17 07:45:25 51°13.595 2°56.104 13.043779 0.068669 0.355371 -0.882377
2004-12-17 07:45:31 51°13.595 2°56.104 13.039517 0.068669 0.355371 -0.848668
2004-12-17 07:45:35 51°13.595 2°56.104 13.039033 0.068669 0.355365 -0.882377
2004-12-17 07:45:40 51°13.595 2°56.104 13.039033 0.068669 0.355365 -0.882377
2004-12-17 07:45:45 51°13.595 2°56.104 13.041987 0.068669 0.355371 -0.848668
2004-12-17 07:45:51 51°13.595 2°56.104 13.045425 0.068669 0.355371 -0.882377
2004-12-17 07:45:55 51°13.595 2°56.104 13.046442 0.068669 0.355371 -0.882377
2004-12-17 07:45:59 51°13.594 2°56.104 13.044747 0.068669 0.355371 -0.882377
2004-12-17 07:46:05 51°13.595 2°56.104 13.046733 0.068669 0.355371 -0.882377
2004-12-17 07:46:11 51°13.595 2°56.104 13.046733 0.068669 0.355371 -0.882377
2004-12-17 07:46:15 51°13.595 2°56.104 13.047266 0.068669 0.355376 -0.882377
2004-12-17 07:46:20 51°13.595 2°56.104 13.050897 0.068669 0.355376 -0.882377
2004-12-17 07:46:25 51°13.595 2°56.104 13.0508 0.068669 0.355371 -0.882377
2004-12-17 07:46:31 51°13.595 2°56.104 13.053367 0.068669 0.355376 -0.848668
2004-12-17 07:46:35 51°13.595 2°56.104 13.048379 0.068669 0.355371 -0.882377
2004-12-17 07:46:39 51°13.594 2°56.104 13.048379 0.068669 0.355371 -0.882377
2004-12-17 07:46:45 51°13.594 2°56.104 13.051285 0.068669 0.355371 -0.882377
2004-12-17 07:46:51 51°13.594 2°56.104 13.056853 0.068669 0.355371 -0.882377
2004-12-17 07:46:55 51°13.594 2°56.104 13.05632 0.068669 0.355371 -0.848668
2004-12-17 07:47:00 51°13.594 2°56.104 13.055497 0.068669 0.355371 -0.848668
2004-12-17 07:47:05 51°13.594 2°56.104 13.058983 0.068669 0.355371 -0.882377
2004-12-17 07:47:11 51°13.594 2°56.104 13.058983 0.068669 0.355371 -0.882377
2004-12-17 07:47:15 51°13.594 2°56.104 13.059274 0.068669 0.355376 -0.848668
2004-12-17 07:47:21 51°13.594 2°56.104 13.062614 0.068669 0.355376 -0.882377
2004-12-17 07:47:25 51°13.594 2°56.104 13.065229 0.068669 0.355371 -0.882377
2004-12-17 07:47:31 51°13.594 2°56.104 13.067068 0.068669 0.355365 -0.882377
2004-12-17 07:47:35 51°13.594 2°56.104 13.066971 0.068669 0.355365 -0.882377
2004-12-17 07:47:40 51°13.594 2°56.104 13.066971 0.068669 0.355365 -0.882377
2004-12-17 07:47:45 51°13.594 2°56.103 13.065519 0.068669 0.355371 -0.882377
2004-12-17 07:47:51 51°13.594 2°56.103 13.066681 0.068669 0.355371 -0.848668
2004-12-17 07:47:55 51°13.594 2°56.103 13.065858 0.068669 0.355371 -0.848668
2004-12-17 07:48:01 51°13.594 2°56.103 13.070989 0.068669 0.355365 -0.882377
2004-12-17 07:48:05 51°13.594 2°56.103 13.06944 0.068669 0.355365 -0.882377
2004-12-17 07:48:11 51°13.594 2°56.103 13.06944 0.068669 0.355365 -0.882377
2004-12-17 07:48:15 51°13.594 2°56.103 13.070844 0.068669 0.355365 -0.882377
2004-12-17 07:48:20 51°13.594 2°56.103 13.076024 0.068669 0.355371 -0.882377
2004-12-17 07:48:25 51°13.594 2°56.103 13.08188 0.068669 0.355371 -0.848668
2004-12-17 07:48:31 51°13.594 2°56.103 13.079606 0.068669 0.355376 -0.882377
2004-12-17 07:48:35 51°13.594 2°56.103 13.081445 0.068669 0.355371 -0.848668
2004-12-17 07:48:39 51°13.594 2°56.103 13.081445 0.068669 0.355371 -0.848668
2004-12-17 07:48:45 51°13.593 2°56.103 13.081106 0.068669 0.355365 -0.848668
2004-12-17 07:48:51 51°13.593 2°56.103 13.082897 0.068669 0.355371 -0.882377
2004-12-17 07:48:55 51°13.593 2°56.103 13.084688 0.068669 0.355376 -0.882377
2004-12-17 07:49:00 51°13.593 2°56.103 13.086188 0.068669 0.355365 -0.882377
2004-12-17 07:49:05 51°13.593 2°56.103 13.083962 0.068669 0.355371 -0.882377
2004-12-17 07:49:11 51°13.593 2°56.103 13.083962 0.068669 0.355371 -0.882377
2004-12-17 07:49:15 51°13.593 2°56.103 13.085075 0.068669 0.355371 -0.882377
2004-12-17 07:49:21 51°13.593 2°56.103 13.082171 0.068669 0.355371 -0.882377
2004-12-17 07:49:25 51°13.593 2°56.103 13.089382 0.068669 0.355371 -0.882377
2004-12-17 07:49:31 51°13.593 2°56.103 13.092334 0.068669 0.355371 -0.882377
2004-12-17 07:49:35 51°13.593 2°56.103 13.091898 0.068669 0.355371 -0.882377
2004-12-17 07:49:40 51°13.593 2°56.103 13.091898 0.068669 0.355371 -0.882377
2004-12-17 07:49:45 51°13.593 2°56.103 13.089382 0.068669 0.355371 -0.882377
2004-12-17 07:49:51 51°13.593 2°56.103 13.09306 0.068669 0.355365 -0.882377
2004-12-17 07:49:55 51°13.593 2°56.103 13.09456 0.068669 0.355371 -0.882377
2004-12-17 07:49:59 51°13.593 2°56.103 13.097173 0.068669 0.355371 -0.882377
2004-12-17 07:50:05 51°13.593 2°56.103 13.098141 0.068669 0.355365 -0.882377
2004-12-17 07:50:11 51°13.593 2°56.103 13.098141 0.068669 0.355365 -0.882377
2004-12-17 07:50:15 51°13.593 2°56.103 13.103609 0.068669 0.355371 -0.882377
2004-12-17 07:50:20 51°13.593 2°56.103 13.105447 0.068669 0.355365 -0.882377
2004-12-17 07:50:25 51°13.593 2°56.103 13.10685 0.068669 0.355365 -0.848668
2004-12-17 07:50:31 51°13.593 2°56.102 13.110431 0.068669 0.355365 -0.882377
2004-12-17 07:50:35 51°13.593 2°56.102 13.113962 0.068669 0.355365 -0.882377
2004-12-17 07:50:39 51°13.593 2°56.102 13.113962 0.068669 0.355365 -0.882377
2004-12-17 07:50:45 51°13.593 2°56.102 13.117349 0.068669 0.355371 -0.848668
2004-12-17 07:50:51 51°13.593 2°56.102 13.118026 0.068669 0.355371 -0.882377
2004-12-17 07:50:55 51°13.593 2°56.102 13.120977 0.068669 0.355365 -0.848668
2004-12-17 07:51:00 51°13.593 2°56.102 13.119574 0.068669 0.355371 -0.882377
2004-12-17 07:51:05 51°13.593 2°56.102 13.120686 0.068669 0.355371 -0.882377
2004-12-17 07:51:11 51°13.593 2°56.102 13.120686 0.068669 0.355371 -0.882377
2004-12-17 07:51:15 51°13.593 2°56.102 13.121702 0.068669 0.355371 -0.848668
2004-12-17 07:51:19 51°13.593 2°56.103 13.123637 0.068669 0.355371 -0.882377
2004-12-17 07:51:24 51°13.593 2°56.103 13.125765 0.068669 0.355371 -0.848668
2004-12-17 07:51:31 51°13.593 2°56.103 13.136551 0.068669 0.355376 -0.848668
2004-12-17 07:51:35 51°13.593 2°56.103 13.138243 0.068669 0.355376 -0.882377
2004-12-17 07:51:40 51°13.593 2°56.103 13.138243 0.068669 0.355376 -0.882377
2004-12-17 07:51:45 51°13.593 2°56.103 13.136309 0.068669 0.355376 -0.848668
2004-12-17 07:51:51 51°13.593 2°56.103 13.137808 0.068669 0.355376 -0.882377
2004-12-17 07:51:55 51°13.593 2°56.103 13.144482 0.068669 0.355376 -0.848668
2004-12-17 07:51:59 51°13.593 2°56.103 13.145255 0.068669 0.355376 -0.848668
2004-12-17 07:52:04 51°13.593 2°56.103 13.144192 0.068669 0.355381 -0.916087
2004-12-17 07:52:11 51°13.593 2°56.102 13.144192 0.068669 0.355381 -0.916087
2004-12-17 07:52:15 51°13.593 2°56.102 13.144192 0.068669 0.355381 -0.848668
2004-12-17 07:52:20 51°13.593 2°56.102 13.146126 0.068669 0.355381 -0.882377
2004-12-17 07:52:25 51°13.593 2°56.102 13.150429 0.068669 0.355376 -0.882377
2004-12-17 07:52:31 51°13.593 2°56.103 13.154587 0.068669 0.355376 -0.848668
2004-12-17 07:52:35 51°13.593 2°56.103 13.160824 0.068669 0.355376 -0.848668
2004-12-17 07:52:41 51°13.593 2°56.103 13.160824 0.068669 0.355376 -0.848668
2004-12-17 07:52:44 51°13.593 2°56.103 13.160969 0.068669 0.355376 -0.882377
2004-12-17 07:52:51 51°13.593 2°56.103 13.160727 0.068669 0.355376 -0.882377
2004-12-17 07:52:55 51°13.593 2°56.103 13.162226 0.068669 0.355376 -0.882377
2004-12-17 07:53:00 51°13.593 2°56.103 13.159712 0.068669 0.355371 -0.882377
2004-12-17 07:53:05 51°13.593 2°56.103 13.162129 0.068669 0.355381 -0.882377
2004-12-17 07:53:11 51°13.593 2°56.103 13.162129 0.068669 0.355381 -0.882377
2004-12-17 07:53:15 51°13.593 2°56.103 13.16532 0.068669 0.355381 -0.882377
2004-12-17 07:53:19 51°13.593 2°56.104 13.166093 0.068669 0.355381 -0.848668
2004-12-17 07:53:24 51°13.593 2°56.104 13.168752 0.068669 0.355381 -0.882377
2004-12-17 07:53:31 51°13.593 2°56.104 13.16822 0.068669 0.355381 -0.882377
2004-12-17 07:53:35 51°13.593 2°56.104 13.170251 0.068669 0.355387 -0.848668
2004-12-17 07:53:40 51°13.593 2°56.104 13.170251 0.068669 0.355387 -0.848668
2004-12-17 07:53:45 51°13.593 2°56.104 13.174021 0.068669 0.355381 -0.882377
2004-12-17 07:53:51 51°13.593 2°56.104 13.171507 0.068669 0.355387 -0.916087
2004-12-17 07:53:55 51°13.593 2°56.104 13.175471 0.068669 0.355387 -0.848668
2004-12-17 07:53:59 51°13.593 2°56.104 13.176293 0.068669 0.355387 -0.848668
2004-12-17 07:54:04 51°13.593 2°56.105 13.179724 0.068669 0.355387 -0.882377
2004-12-17 07:54:11 51°13.593 2°56.105 13.179724 0.068669 0.355387 -0.882377
2004-12-17 07:54:15 51°13.593 2°56.105 13.180401 0.068669 0.355387 -0.916087
2004-12-17 07:54:20 51°13.593 2°56.105 13.183059 0.068669 0.355392 -0.882377
2004-12-17 07:54:25 51°13.593 2°56.105 13.181947 0.068669 0.355387 -0.882377
2004-12-17 07:54:31 51°13.593 2°56.104 13.187892 0.068669 0.355392 -0.848668
2004-12-17 07:54:35 51°13.593 2°56.104 13.188423 0.068669 0.355397 -0.848668
2004-12-17 07:54:39 51°13.593 2°56.104 13.188423 0.068669 0.355397 -0.848668
2004-12-17 07:54:44 51°13.593 2°56.103 13.189052 0.068669 0.355397 -0.882377
2004-12-17 07:54:51 51°13.593 2°56.103 13.188568 0.068669 0.355397 -0.882377
2004-12-17 07:54:55 51°13.593 2°56.103 13.190791 0.068669 0.355392 -0.848668
2004-12-17 07:55:00 51°13.593 2°56.103 13.189148 0.068669 0.355397 -0.848668
2004-12-17 07:55:05 51°13.593 2°56.103 13.188423 0.068669 0.355402 -0.882377
2004-12-17 07:55:11 51°13.593 2°56.103 13.188423 0.068669 0.355402 -0.882377
2004-12-17 07:55:15 51°13.593 2°56.103 13.191371 0.068669 0.355397 -0.882377
2004-12-17 07:55:19 51°13.593 2°56.103 13.19485 0.068669 0.355402 -0.848668
2004-12-17 07:55:25 51°13.593 2°56.103 13.196107 0.068669 0.355402 -0.882377
2004-12-17 07:55:31 51°13.593 2°56.103 13.199489 0.068669 0.355402 -0.882377
2004-12-17 07:55:35 51°13.593 2°56.103 13.200262 0.068669 0.355408 -0.848668
2004-12-17 07:55:40 51°13.593 2°56.103 13.200262 0.068669 0.355408 -0.848668
2004-12-17 07:55:45 51°13.593 2°56.103 13.201132 0.068669 0.355408 -0.848668
2004-12-17 07:55:51 51°13.593 2°56.104 13.203258 0.068669 0.355408 -0.882377
2004-12-17 07:55:55 51°13.593 2°56.104 13.204079 0.068669 0.355408 -0.882377
2004-12-17 07:56:01 51°13.593 2°56.104 13.20118 0.068669 0.355408 -0.848668
2004-12-17 07:56:05 51°13.593 2°56.104 13.188037 0.068669 0.355413 -0.848668
2004-12-17 07:56:11 51°13.593 2°56.103 13.188037 0.068669 0.355413 -0.848668
2004-12-17 07:56:15 51°13.593 2°56.103 13.198812 0.068669 0.355413 -0.882377
2004-12-17 07:56:20 51°13.593 2°56.103 13.202774 0.068565 0.354859 -0.882377
2004-12-17 07:56:25 51°13.593 2°56.103 13.204224 0.068669 0.355413 -0.848668
2004-12-17 07:56:31 51°13.594 2°56.103 13.206301 0.068669 0.355424 -0.916087
2004-12-17 07:56:35 51°13.594 2°56.102 13.210311 0.068669 0.355418 -0.848668
2004-12-17 07:56:39 51°13.594 2°56.102 13.210311 0.068669 0.355418 -0.848668
2004-12-17 07:56:45 51°13.594 2°56.102 13.210118 0.068669 0.355424 -0.882377
2004-12-17 07:56:51 51°13.594 2°56.102 13.208379 0.068669 0.355429 -0.848668
2004-12-17 07:56:56 51°13.594 2°56.102 13.212485 0.068669 0.355429 -0.882377
2004-12-17 07:57:00 51°13.594 2°56.102 13.218717 0.068669 0.355429 -0.882377
2004-12-17 07:57:05 51°13.593 2°56.103 13.217895 0.068669 0.35544 -0.848668
2004-12-17 07:57:11 51°13.593 2°56.103 13.217895 0.068669 0.35544 -0.848668
2004-12-17 07:57:15 51°13.593 2°56.103 13.216495 0.068669 0.355434 -0.882377
2004-12-17 07:57:20 51°13.593 2°56.103 13.220649 0.068669 0.355434 -0.882377
2004-12-17 07:57:25 51°13.593 2°56.103 13.222194 0.068669 0.355445 -0.848668
2004-12-17 07:57:31 51°13.593 2°56.103 13.221663 0.068669 0.355445 -0.882377
2004-12-17 07:57:35 51°13.593 2°56.103 13.220939 0.068669 0.35545 -0.882377
2004-12-17 07:57:39 51°13.594 2°56.103 13.220939 0.068669 0.35545 -0.882377
2004-12-17 07:57:44 51°13.594 2°56.103 13.216929 0.068669 0.355445 -0.848668
2004-12-17 07:57:51 51°13.594 2°56.103 13.219683 0.068669 0.35545 -0.848668
2004-12-17 07:57:55 51°13.594 2°56.103 13.221325 0.068669 0.35545 -0.882377
2004-12-17 07:58:00 51°13.594 2°56.103 13.21891 0.068669 0.35545 -0.848668
2004-12-17 07:58:05 51°13.594 2°56.103 13.219683 0.068669 0.35545 -0.848668